| time (UTC) | temp F | wind direction | speed knots | gust knots | rain 1hr in | rain 24hr in | rain mn in | humidity % | barometer mb |
| 20260507010501 | 55 | 45 | 1.7 | 3.5 | 0.00 | 2.05 | 0.00 | 93 | 1014.4 |
| 20260507010401 | 55 | 45 | 1.7 | 3.5 | 0.00 | 2.06 | 0.00 | 93 | 1014.6 |
| 20260507010301 | 55 | 45 | 1.7 | 1.7 | 0.00 | 2.06 | 0.00 | 93 | 1014.3 |
| 20260507010202 | 55 | 45 | 1.7 | 3.5 | 0.00 | 2.06 | 0.00 | 93 | 1014.5 |
| 20260507010101 | 55 | 45 | 1.7 | 3.5 | 0.00 | 2.06 | 0.00 | 93 | 1014.4 |
| 20260507010001 | 55 | 45 | 2.6 | 3.5 | 0.00 | 2.06 | 0.00 | 93 | 1014.6 |
| 20260507005901 | 55 | 22 | 0.9 | 3.5 | 0.00 | 2.06 | 0.00 | 93 | 1014.4 |
| 20260507005802 | 55 | 68 | 1.7 | 3.5 | 0.00 | 2.06 | 0.00 | 93 | 1014.6 |
| 20260507005702 | 55 | 45 | 1.7 | 3.5 | 0.00 | 2.06 | 0.00 | 93 | 1014.6 |
| 20260507005602 | 55 | 45 | 0.9 | 1.7 | 0.00 | 2.06 | 0.00 | 93 | 1014.5 |
| 20260507005502 | 55 | 45 | 1.7 | 3.5 | 0.00 | 2.06 | 0.00 | 93 | 1014.6 |
| 20260507005402 | 55 | 45 | 1.7 | 3.5 | 0.00 | 2.06 | 0.00 | 93 | 1014.6 |
| 20260507005305 | 55 | 68 | 1.7 | 3.5 | 0.00 | 2.07 | 0.00 | 92 | 1014.6 |
| 20260507005202 | 55 | 68 | 1.7 | 3.5 | 0.00 | 2.07 | 0.00 | 92 | 1014.5 |
| 20260507005101 | 55 | 68 | 1.7 | 3.5 | 0.00 | 2.07 | 0.00 | 92 | 1014.5 |
| 20260507005002 | 56 | 45 | 3.5 | 5.2 | 0.00 | 2.07 | 0.00 | 92 | 1014.7 |
| 20260507004902 | 55 | 45 | 2.6 | 5.2 | 0.00 | 2.12 | 0.00 | 92 | 1014.6 |
| 20260507004802 | 55 | 45 | 4.3 | 6.1 | 0.00 | 2.12 | 0.00 | 92 | 1014.4 |
| 20260507004702 | 56 | 45 | 3.5 | 3.5 | 0.00 | 2.13 | 0.00 | 92 | 1014.4 |
| 20260507004602 | 56 | 68 | 2.6 | 3.5 | 0.00 | 2.13 | 0.00 | 92 | 1014.7 |
| 20260507004501 | 56 | 45 | 2.6 | 5.2 | 0.00 | 2.16 | 0.00 | 92 | 1014.7 |
| 20260507004401 | 56 | 45 | 2.6 | 3.5 | 0.00 | 2.16 | 0.00 | 92 | 1014.5 |
| 20260507004302 | 56 | 45 | 3.5 | 5.2 | 0.00 | 2.16 | 0.00 | 92 | 1014.6 |
| 20260507004201 | 56 | 45 | 3.5 | 3.5 | 0.00 | 2.16 | 0.00 | 92 | 1014.5 |
| 20260507004101 | 56 | 45 | 2.6 | 3.5 | 0.00 | 2.16 | 0.00 | 92 | 1014.2 |
| 20260507004001 | 56 | 45 | 3.5 | 5.2 | 0.00 | 2.16 | 0.00 | 92 | 1014.4 |
| 20260507003901 | 56 | 45 | 3.5 | 5.2 | 0.00 | 2.17 | 0.00 | 92 | 1014.7 |
| 20260507003801 | 56 | 68 | 2.6 | 3.5 | 0.00 | 2.17 | 0.00 | 92 | 1014.7 |
| 20260507003701 | 56 | 45 | 3.5 | 5.2 | 0.00 | 2.17 | 0.00 | 92 | 1014.6 |
| 20260507003601 | 56 | 45 | 2.6 | 3.5 | 0.00 | 2.17 | 0.00 | 92 | 1014.7 |
| 20260507003501 | 56 | 45 | 2.6 | 3.5 | 0.00 | 2.17 | 0.00 | 92 | 1014.7 |
| 20260507003401 | 56 | 45 | 1.7 | 3.5 | 0.00 | 2.17 | 0.00 | 92 | 1014.6 |
| 20260507003301 | 56 | 45 | 2.6 | 3.5 | 0.00 | 2.17 | 0.00 | 92 | 1014.5 |
| 20260507003201 | 56 | 22 | 2.6 | 3.5 | 0.00 | 2.17 | 0.00 | 92 | 1014.6 |
| 20260507003101 | 56 | 68 | 2.6 | 5.2 | 0.00 | 2.17 | 0.00 | 92 | 1014.6 |
| 20260507003000 | 56 | 45 | 2.6 | 5.2 | 0.00 | 2.17 | 0.00 | 92 | 1014.7 |
| 20260507002901 | 56 | 45 | 1.7 | 3.5 | 0.00 | 2.17 | 0.00 | 92 | 1014.5 |
| 20260507002801 | 56 | 68 | 1.7 | 3.5 | 0.00 | 2.17 | 0.00 | 92 | 1014.5 |
| 20260507002702 | 56 | 45 | 1.7 | 3.5 | 0.00 | 2.17 | 0.00 | 92 | 1014.6 |
| 20260507002601 | 56 | 68 | 1.7 | 3.5 | 0.00 | 2.17 | 0.00 | 92 | 1014.6 |
| 20260507002501 | 56 | 45 | 2.6 | 3.5 | 0.00 | 2.17 | 0.00 | 92 | 1014.7 |
| 20260507002403 | 56 | 45 | 1.7 | 3.5 | 0.00 | 2.17 | 0.00 | 92 | 1014.5 |
| 20260507002305 | 56 | 45 | 3.5 | 3.5 | 0.00 | 2.17 | 0.00 | 92 | 1014.5 |
| 20260507002202 | 56 | 45 | 3.5 | 3.5 | 0.00 | 2.17 | 0.00 | 92 | 1014.7 |
| 20260507002101 | 56 | 45 | 3.5 | 5.2 | 0.00 | 2.17 | 0.00 | 92 | 1014.5 |
| 20260507002002 | 56 | 45 | 2.6 | 3.5 | 0.00 | 2.17 | 0.00 | 92 | 1014.5 |
| 20260507001902 | 56 | 45 | 1.7 | 3.5 | 0.00 | 2.17 | 0.00 | 92 | 1014.4 |
| 20260507001801 | 56 | 45 | 2.6 | 3.5 | 0.00 | 2.17 | 0.00 | 92 | 1014.7 |
| 20260507001701 | 56 | 68 | 1.7 | 3.5 | 0.00 | 2.17 | 0.00 | 92 | 1014.6 |
| 20260507001401 | 56 | 68 | 1.7 | 3.5 | 0.00 | 2.17 | 0.00 | 92 | 1014.5 |
| 20260507001301 | 56 | 68 | 1.7 | 1.7 | 0.00 | 2.17 | 0.00 | 92 | 1014.4 |
| 20260507001201 | 56 | 68 | 1.7 | 3.5 | 0.00 | 2.17 | 0.00 | 92 | 1014.6 |
| 20260507001101 | 56 | 45 | 1.7 | 3.5 | 0.00 | 2.17 | 0.00 | 92 | 1014.5 |
| 20260507001002 | 56 | 45 | 1.7 | 3.5 | 0.00 | 2.17 | 0.00 | 92 | 1014.5 |
| 20260507000901 | 56 | 68 | 1.7 | 3.5 | 0.00 | 2.17 | 0.00 | 92 | 1014.5 |
| 20260507000802 | 56 | 45 | 1.7 | 1.7 | 0.00 | 2.17 | 0.00 | 92 | 1014.6 |
| 20260507000702 | 56 | 45 | 1.7 | 1.7 | 0.00 | 2.17 | 0.00 | 92 | 1014.3 |
| 20260507000602 | 56 | 68 | 1.7 | 1.7 | 0.00 | 2.17 | 0.00 | 92 | 1014.4 |
| 20260507000501 | 56 | 68 | 1.7 | 1.7 | 0.00 | 2.17 | 0.00 | 92 | 1014.4 |
| 20260507000401 | 56 | 68 | 1.7 | 1.7 | 0.00 | 2.17 | 0.00 | 92 | 1014.3 |
| 20260507000302 | 56 | 68 | 1.7 | 1.7 | 0.00 | 2.17 | 0.00 | 92 | 1014.5 |
| 20260507000204 | 56 | 68 | 1.7 | 1.7 | 0.00 | 2.17 | 0.00 | 92 | 1014.5 |
| 20260507000002 | 56 | 68 | 1.7 | 1.7 | 0.00 | 2.17 | 0.00 | 92 | 1014.7 |
| 20260506235902 | 56 | 45 | 1.7 | 3.5 | 0.00 | 2.17 | 0.00 | 93 | 1014.7 |
| 20260506235801 | 56 | 45 | 2.6 | 3.5 | 0.00 | 2.17 | 0.00 | 93 | 1014.7 |
| 20260506235702 | 56 | 45 | 2.6 | 3.5 | 0.00 | 2.17 | 0.00 | 93 | 1014.5 |
| 20260506235601 | 56 | 45 | 2.6 | 3.5 | 0.00 | 2.17 | 0.00 | 93 | 1014.6 |
| 20260506235501 | 56 | 45 | 1.7 | 3.5 | 0.00 | 2.17 | 0.00 | 93 | 1014.5 |
| 20260506235401 | 56 | 45 | 1.7 | 1.7 | 0.00 | 2.17 | 0.00 | 93 | 1014.8 |
| 20260506235301 | 56 | 45 | 1.7 | 3.5 | 0.00 | 2.17 | 0.00 | 93 | 1014.7 |
| 20260506235201 | 56 | 68 | 1.7 | 3.5 | 0.00 | 2.17 | 0.00 | 93 | 1014.7 |
| 20260506235101 | 56 | 45 | 1.7 | 1.7 | 0.00 | 2.17 | 0.00 | 93 | 1014.6 |
| 20260506235001 | 56 | 45 | 1.7 | 1.7 | 0.00 | 2.17 | 0.00 | 93 | 1014.5 |
| 20260506234901 | 56 | 68 | 0.9 | 1.7 | 0.00 | 2.17 | 0.00 | 93 | 1014.5 |
| 20260506234801 | 56 | 68 | 0.9 | 1.7 | 0.00 | 2.17 | 0.00 | 93 | 1014.7 |
| 20260506234701 | 56 | 90 | 0.0 | 0.0 | 0.00 | 2.17 | 0.00 | 93 | 1014.6 |
| 20260506234601 | 56 | 68 | 0.0 | 0.0 | 0.00 | 2.17 | 0.00 | 93 | 1014.6 |
| 20260506234501 | 56 | 68 | 0.0 | 0.0 | 0.00 | 2.17 | 0.00 | 93 | 1014.7 |
| 20260506234401 | 56 | 68 | 0.0 | 0.0 | 0.00 | 2.17 | 0.00 | 92 | 1014.9 |
| 20260506234301 | 56 | 68 | 0.0 | 0.0 | 0.00 | 2.17 | 0.00 | 93 | 1014.5 |
| 20260506234201 | 56 | 68 | 1.7 | 1.7 | 0.00 | 2.17 | 0.00 | 92 | 1014.7 |
| 20260506234101 | 56 | 45 | 0.9 | 1.7 | 0.00 | 2.17 | 0.00 | 92 | 1014.6 |
| 20260506234001 | 56 | 45 | 0.9 | 1.7 | 0.00 | 2.17 | 0.00 | 92 | 1014.8 |
| 20260506233901 | 56 | 45 | 0.9 | 1.7 | 0.00 | 2.17 | 0.00 | 92 | 1014.5 |
| 20260506233802 | 56 | 45 | 0.9 | 1.7 | 0.00 | 2.17 | 0.00 | 92 | 1014.6 |
| 20260506233702 | 56 | 45 | 0.9 | 1.7 | 0.00 | 2.17 | 0.00 | 92 | 1014.6 |
| 20260506233602 | 56 | 45 | 1.7 | 3.5 | 0.00 | 2.17 | 0.00 | 92 | 1014.5 |
| 20260506233501 | 56 | 45 | 1.7 | 1.7 | 0.00 | 2.17 | 0.00 | 92 | 1014.6 |
| 20260506233401 | 56 | 45 | 1.7 | 1.7 | 0.00 | 2.17 | 0.00 | 92 | 1014.7 |
| 20260506233302 | 56 | 45 | 1.7 | 3.5 | 0.00 | 2.17 | 0.00 | 92 | 1014.5 |
| 20260506233202 | 56 | 45 | 0.9 | 3.5 | 0.00 | 2.17 | 0.00 | 92 | 1014.7 |
| 20260506233101 | 56 | 45 | 1.7 | 1.7 | 0.00 | 2.17 | 0.00 | 92 | 1014.7 |
| 20260506233001 | 56 | 68 | 1.7 | 1.7 | 0.00 | 2.17 | 0.00 | 92 | 1014.5 |
| 20260506232902 | 56 | 45 | 1.7 | 3.5 | 0.00 | 2.17 | 0.00 | 92 | 1014.6 |
| 20260506232801 | 56 | 45 | 1.7 | 3.5 | 0.00 | 2.17 | 0.00 | 92 | 1014.7 |
| 20260506232701 | 56 | 45 | 1.7 | 3.5 | 0.00 | 2.17 | 0.00 | 92 | 1014.6 |
| 20260506232602 | 56 | 45 | 2.6 | 3.5 | 0.00 | 2.17 | 0.00 | 92 | 1014.7 |
| 20260506232502 | 56 | 45 | 2.6 | 3.5 | 0.00 | 2.17 | 0.00 | 92 | 1014.8 |
| 20260506232401 | 56 | 45 | 1.7 | 3.5 | 0.00 | 2.17 | 0.00 | 92 | 1014.8 |
| 20260506232301 | 56 | 45 | 1.7 | 3.5 | 0.00 | 2.18 | 0.00 | 92 | 1014.9 |
| 20260506232201 | 56 | 22 | 2.6 | 3.5 | 0.00 | 2.18 | 0.00 | 92 | 1014.8 |
| 20260506232102 | 56 | 22 | 2.6 | 3.5 | 0.00 | 2.19 | 0.00 | 92 | 1014.4 |
| 20260506232002 | 56 | 45 | 2.6 | 3.5 | 0.00 | 2.19 | 0.00 | 92 | 1014.5 |
| 20260506231901 | 56 | 45 | 1.7 | 3.5 | 0.00 | 2.20 | 0.00 | 92 | 1014.7 |
| 20260506231802 | 56 | 45 | 2.6 | 3.5 | 0.00 | 2.20 | 0.00 | 92 | 1014.8 |
| 20260506231702 | 56 | 45 | 1.7 | 3.5 | 0.00 | 2.23 | 0.00 | 92 | 1014.9 |
| 20260506231602 | 56 | 45 | 1.7 | 3.5 | 0.00 | 2.24 | 0.00 | 92 | 1014.7 |
| 20260506231502 | 56 | 45 | 1.7 | 3.5 | 0.00 | 2.24 | 0.00 | 92 | 1014.8 |
| 20260506231402 | 56 | 45 | 1.7 | 5.2 | 0.00 | 2.25 | 0.00 | 92 | 1014.9 |
| 20260506231302 | 56 | 68 | 2.6 | 5.2 | 0.00 | 2.26 | 0.00 | 92 | 1014.6 |
| 20260506231202 | 56 | 45 | 3.5 | 6.1 | 0.00 | 2.29 | 0.00 | 92 | 1014.4 |
| 20260506231102 | 56 | 68 | 2.6 | 3.5 | 0.00 | 2.31 | 0.00 | 92 | 1014.7 |
| 20260506231002 | 56 | 45 | 1.7 | 3.5 | 0.00 | 2.35 | 0.00 | 92 | 1015.0 |
| 20260506230901 | 56 | 45 | 2.6 | 5.2 | 0.00 | 2.44 | 0.00 | 92 | 1014.8 |
| 20260506230802 | 56 | 45 | 3.5 | 5.2 | 0.00 | 2.44 | 0.00 | 92 | 1014.7 |
| 20260506230701 | 56 | 90 | 3.5 | 5.2 | 0.00 | 2.49 | 0.00 | 92 | 1014.7 |
| 20260506230602 | 56 | 68 | 3.5 | 3.5 | 0.00 | 2.52 | 0.00 | 92 | 1015.1 |
| 20260506230502 | 56 | 68 | 2.6 | 3.5 | 0.00 | 2.57 | 0.00 | 92 | 1014.8 |
| 20260506230402 | 56 | 68 | 3.5 | 3.5 | 0.00 | 2.59 | 0.00 | 92 | 1014.7 |
| 20260506230302 | 56 | 68 | 2.6 | 3.5 | 0.00 | 2.64 | 0.00 | 91 | 1014.7 |
| 20260506230202 | 56 | 90 | 1.7 | 1.7 | 0.00 | 2.69 | 0.00 | 91 | 1014.8 |
| 20260506230002 | 56 | 68 | 1.7 | 1.7 | 0.00 | 2.97 | 0.00 | 91 | 1014.7 |
| 20260506225902 | 56 | 68 | 1.7 | 3.5 | 0.00 | 2.97 | 0.00 | 91 | 1014.9 |
| 20260506225801 | 56 | 68 | 1.7 | 1.7 | 0.00 | 3.03 | 0.00 | 91 | 1014.8 |
| 20260506225701 | 56 | 68 | 1.7 | 1.7 | 0.00 | 3.10 | 0.00 | 91 | 1014.7 |
| 20260506225601 | 56 | 68 | 1.7 | 1.7 | 0.00 | 3.15 | 0.00 | 91 | 1014.9 |
| 20260506225500 | 56 | 68 | 1.7 | 3.5 | 0.00 | 3.18 | 0.00 | 91 | 1014.7 |
| 20260506225401 | 56 | 68 | 1.7 | 1.7 | 0.00 | 3.23 | 0.00 | 91 | 1014.8 |
| 20260506225301 | 56 | 45 | 1.7 | 1.7 | 0.00 | 3.31 | 0.00 | 91 | 1014.7 |
| 20260506225201 | 56 | 45 | 1.7 | 1.7 | 0.00 | 3.34 | 0.00 | 91 | 1014.5 |
| 20260506225101 | 56 | 45 | 0.9 | 1.7 | 0.00 | 3.36 | 0.00 | 91 | 1014.7 |
| 20260506225002 | 56 | 68 | 1.7 | 3.5 | 0.00 | 3.36 | 0.00 | 91 | 1014.6 |
| 20260506224900 | 56 | 45 | 1.7 | 1.7 | 0.00 | 3.38 | 0.00 | 91 | 1014.7 |
| 20260506224801 | 56 | 45 | 1.7 | 3.5 | 0.00 | 3.41 | 0.00 | 91 | 1014.7 |
| 20260506224702 | 57 | 45 | 0.9 | 1.7 | 0.00 | 3.41 | 0.00 | 91 | 1014.5 |
| 20260506224602 | 57 | 45 | 2.6 | 3.5 | 0.00 | 3.42 | 0.00 | 91 | 1014.6 |
| 20260506224502 | 57 | 68 | 2.6 | 3.5 | 0.00 | 3.49 | 0.00 | 91 | 1014.7 |
| 20260506224401 | 57 | 45 | 1.7 | 3.5 | 0.00 | 3.50 | 0.00 | 91 | 1014.7 |
| 20260506224301 | 57 | 68 | 1.7 | 1.7 | 0.00 | 3.54 | 0.00 | 91 | 1014.6 |
| 20260506224202 | 57 | 45 | 3.5 | 3.5 | 0.00 | 3.54 | 0.00 | 91 | 1014.8 |
| 20260506224102 | 57 | 45 | 2.6 | 3.5 | 0.00 | 3.56 | 0.00 | 91 | 1014.6 |
| 20260506224002 | 57 | 45 | 3.5 | 5.2 | 0.00 | 3.56 | 0.00 | 91 | 1014.7 |
| 20260506223902 | 57 | 45 | 3.5 | 5.2 | 0.00 | 3.57 | 0.00 | 91 | 1014.6 |
| 20260506223802 | 57 | 68 | 2.6 | 3.5 | 0.00 | 3.57 | 0.00 | 90 | 1014.7 |
| 20260506223701 | 57 | 68 | 2.6 | 3.5 | 0.00 | 3.59 | 0.00 | 90 | 1014.7 |
| 20260506223601 | 57 | 90 | 3.5 | 5.2 | 0.00 | 3.61 | 0.00 | 90 | 1014.7 |
| 20260506223501 | 57 | 45 | 2.6 | 5.2 | 0.00 | 3.61 | 0.00 | 90 | 1014.6 |
| 20260506223401 | 57 | 68 | 3.5 | 3.5 | 0.00 | 3.66 | 0.00 | 90 | 1014.7 |
| 20260506223301 | 57 | 45 | 3.5 | 5.2 | 0.00 | 3.66 | 0.00 | 90 | 1014.5 |
| 20260506223201 | 57 | 68 | 3.5 | 5.2 | 0.00 | 3.67 | 0.00 | 90 | 1014.8 |
| 20260506223101 | 57 | 45 | 2.6 | 5.2 | 0.00 | 3.67 | 0.00 | 90 | 1014.5 |
| 20260506223002 | 57 | 68 | 3.5 | 5.2 | 0.00 | 3.68 | 0.00 | 90 | 1014.8 |
| 20260506222902 | 57 | 90 | 3.5 | 5.2 | 0.00 | 3.68 | 0.00 | 90 | 1014.8 |
| 20260506222801 | 58 | 45 | 3.5 | 5.2 | 0.00 | 3.68 | 0.00 | 90 | 1014.7 |
| 20260506222702 | 58 | 90 | 1.7 | 3.5 | 0.00 | 3.69 | 0.00 | 90 | 1014.7 |
| 20260506222602 | 58 | 68 | 1.7 | 3.5 | 0.00 | 3.69 | 0.00 | 90 | 1014.7 |
| 20260506222502 | 58 | 90 | 1.7 | 1.7 | 0.00 | 3.70 | 0.00 | 90 | 1014.6 |
| 20260506222402 | 58 | 45 | 1.7 | 1.7 | 0.00 | 3.72 | 0.00 | 90 | 1014.7 |
| 20260506222305 | 57 | 45 | 1.7 | 1.7 | 0.00 | 3.72 | 0.00 | 90 | 1014.6 |
| 20260506222202 | 57 | 45 | 1.7 | 1.7 | 0.00 | 3.72 | 0.00 | 90 | 1014.8 |
| 20260506222102 | 57 | 45 | 1.7 | 3.5 | 0.00 | 3.73 | 0.00 | 90 | 1014.7 |
| 20260506222002 | 57 | 45 | 1.7 | 3.5 | 0.00 | 3.73 | 0.00 | 90 | 1014.7 |
| 20260506221902 | 57 | 45 | 0.9 | 1.7 | 0.00 | 3.73 | 0.00 | 90 | 1014.4 |
| 20260506221801 | 57 | 45 | 2.6 | 3.5 | 0.00 | 3.74 | 0.00 | 90 | 1014.7 |
| 20260506221701 | 57 | 45 | 2.6 | 3.5 | 0.00 | 3.74 | 0.00 | 90 | 1014.7 |
| 20260506221601 | 57 | 68 | 3.5 | 3.5 | 0.00 | 3.75 | 0.00 | 90 | 1014.8 |
| 20260506221502 | 58 | 45 | 1.7 | 3.5 | 0.00 | 3.75 | 0.00 | 90 | 1014.6 |
| 20260506221401 | 58 | 45 | 0.9 | 1.7 | 0.00 | 3.75 | 0.00 | 90 | 1014.7 |
| 20260506221301 | 58 | 68 | 1.7 | 3.5 | 0.00 | 3.75 | 0.00 | 90 | 1014.7 |
| 20260506221201 | 58 | 68 | 0.9 | 1.7 | 0.00 | 3.75 | 0.00 | 90 | 1014.6 |
| 20260506221102 | 58 | 90 | 1.7 | 3.5 | 0.00 | 3.75 | 0.00 | 90 | 1014.7 |
| 20260506221002 | 58 | 68 | 1.7 | 3.5 | 0.00 | 3.75 | 0.00 | 90 | 1014.5 |
| 20260506220901 | 58 | 45 | 2.6 | 3.5 | 0.00 | 3.75 | 0.00 | 90 | 1014.7 |
| 20260506220801 | 58 | 68 | 1.7 | 3.5 | 0.00 | 3.75 | 0.00 | 90 | 1014.7 |
| 20260506220701 | 58 | 68 | 1.7 | 3.5 | 0.00 | 3.75 | 0.00 | 90 | 1014.5 |
| 20260506220600 | 58 | 68 | 1.7 | 1.7 | 0.00 | 3.75 | 0.00 | 90 | 1014.7 |
| 20260506220502 | 58 | 68 | 1.7 | 3.5 | 0.00 | 3.75 | 0.00 | 90 | 1014.5 |
| 20260506220400 | 58 | 68 | 1.7 | 3.5 | 0.00 | 3.75 | 0.00 | 90 | 1014.6 |
| 20260506220301 | 58 | 68 | 1.7 | 3.5 | 0.00 | 3.75 | 0.00 | 90 | 1014.7 |
| 20260506220201 | 58 | 112 | 1.7 | 1.7 | 0.00 | 3.75 | 0.00 | 90 | 1014.5 |
| 20260506220101 | 58 | 68 | 1.7 | 1.7 | 0.00 | 3.75 | 3.75 | 90 | 1014.6 |
| 20260506220001 | 58 | 68 | 2.6 | 3.5 | 0.00 | 3.75 | 3.75 | 90 | 1014.4 |
| 20260506215901 | 58 | 68 | 2.6 | 3.5 | 0.00 | 3.75 | 3.75 | 90 | 1014.6 |
| 20260506215802 | 58 | 90 | 1.7 | 3.5 | 0.00 | 3.75 | 3.75 | 90 | 1014.5 |
| 20260506215702 | 58 | 45 | 2.6 | 3.5 | 0.00 | 3.75 | 3.75 | 90 | 1014.4 |
| 20260506215602 | 58 | 45 | 2.6 | 3.5 | 0.00 | 3.75 | 3.75 | 90 | 1014.7 |
| 20260506215502 | 58 | 45 | 1.7 | 3.5 | 0.00 | 3.75 | 3.75 | 90 | 1014.6 |
| 20260506215402 | 58 | 45 | 3.5 | 3.5 | 0.00 | 3.75 | 3.75 | 90 | 1014.5 |
| 20260506215305 | 58 | 68 | 2.6 | 3.5 | 0.00 | 3.75 | 3.75 | 90 | 1014.5 |
| 20260506215202 | 58 | 45 | 2.6 | 3.5 | 0.00 | 3.75 | 3.75 | 90 | 1014.5 |
| 20260506215102 | 58 | 45 | 1.7 | 3.5 | 0.00 | 3.75 | 3.75 | 91 | 1014.4 |
| 20260506215002 | 58 | 22 | 1.7 | 3.5 | 0.00 | 3.75 | 3.75 | 91 | 1014.4 |
| 20260506214902 | 58 | 68 | 0.0 | 1.7 | 0.00 | 3.75 | 3.75 | 91 | 1014.4 |
| 20260506214801 | 58 | 68 | 0.0 | 1.7 | 0.00 | 3.75 | 3.75 | 91 | 1014.4 |
| 20260506214701 | 58 | 90 | 0.9 | 1.7 | 0.00 | 3.75 | 3.75 | 91 | 1014.5 |
| 20260506214601 | 58 | 90 | 0.9 | 1.7 | 0.00 | 3.75 | 3.75 | 91 | 1014.7 |
| 20260506214501 | 58 | 90 | 0.0 | 1.7 | 0.00 | 3.75 | 3.75 | 91 | 1014.5 |
| 20260506214401 | 58 | 90 | 0.0 | 1.7 | 0.00 | 3.75 | 3.75 | 91 | 1014.5 |
| 20260506214301 | 58 | 68 | 0.0 | 1.7 | 0.00 | 3.75 | 3.75 | 91 | 1014.5 |
| 20260506214201 | 58 | 90 | 1.7 | 1.7 | 0.00 | 3.75 | 3.75 | 90 | 1014.6 |
| 20260506214102 | 58 | 90 | 1.7 | 3.5 | 0.00 | 3.75 | 3.75 | 91 | 1014.3 |
| 20260506214001 | 58 | 68 | 1.7 | 3.5 | 0.00 | 3.75 | 3.75 | 90 | 1014.3 |
| 20260506213902 | 58 | 90 | 1.7 | 3.5 | 0.00 | 3.75 | 3.75 | 91 | 1014.5 |
| 20260506213801 | 58 | 68 | 1.7 | 3.5 | 0.00 | 3.75 | 3.75 | 91 | 1014.6 |
| 20260506213701 | 58 | 68 | 1.7 | 3.5 | 0.00 | 3.75 | 3.75 | 91 | 1014.6 |
| 20260506213601 | 58 | 68 | 1.7 | 3.5 | 0.00 | 3.75 | 3.75 | 91 | 1014.5 |
| 20260506213501 | 58 | 112 | 1.7 | 1.7 | 0.00 | 3.75 | 3.75 | 91 | 1014.7 |
| 20260506213401 | 58 | 68 | 3.5 | 3.5 | 0.00 | 3.75 | 3.75 | 91 | 1014.7 |
| 20260506213301 | 59 | 45 | 1.7 | 3.5 | 0.00 | 3.75 | 3.75 | 91 | 1014.4 |
| 20260506213201 | 58 | 68 | 1.7 | 3.5 | 0.00 | 3.75 | 3.75 | 91 | 1014.4 |
| 20260506213101 | 58 | 45 | 1.7 | 1.7 | 0.00 | 3.75 | 3.75 | 91 | 1014.5 |
| 20260506213001 | 58 | 45 | 1.7 | 1.7 | 0.00 | 3.75 | 3.75 | 91 | 1014.5 |
| 20260506212901 | 58 | 45 | 1.7 | 3.5 | 0.00 | 3.75 | 3.75 | 91 | 1014.3 |
| 20260506212802 | 58 | 45 | 0.0 | 1.7 | 0.00 | 3.75 | 3.75 | 91 | 1014.6 |
| 20260506212701 | 58 | 45 | 0.9 | 1.7 | 0.00 | 3.75 | 3.75 | 91 | 1014.5 |
| 20260506212602 | 58 | 90 | 0.9 | 1.7 | 0.00 | 3.75 | 3.75 | 91 | 1014.4 |
| 20260506212501 | 58 | 90 | 0.0 | 1.7 | 0.00 | 3.75 | 3.75 | 91 | 1014.6 |
| 20260506212401 | 58 | 90 | 0.9 | 1.7 | 0.00 | 3.75 | 3.75 | 91 | 1014.5 |
| 20260506212306 | 58 | 68 | 1.7 | 3.5 | 0.00 | 3.75 | 3.75 | 91 | 1014.4 |
| 20260506212202 | 58 | 45 | 1.7 | 1.7 | 0.00 | 3.75 | 3.75 | 91 | 1014.4 |
| 20260506212103 | 58 | 90 | 1.7 | 3.5 | 0.00 | 3.75 | 3.75 | 91 | 1014.4 |
| 20260506212002 | 58 | 68 | 1.7 | 1.7 | 0.00 | 3.75 | 3.75 | 91 | 1014.5 |
| 20260506211902 | 58 | 68 | 0.9 | 1.7 | 0.00 | 3.75 | 3.75 | 91 | 1014.3 |
| 20260506211801 | 59 | 68 | 0.9 | 1.7 | 0.00 | 3.75 | 3.75 | 91 | 1014.6 |
| 20260506211701 | 59 | 68 | 1.7 | 1.7 | 0.00 | 3.75 | 3.75 | 91 | 1014.7 |
| 20260506211601 | 59 | 68 | 1.7 | 1.7 | 0.00 | 3.75 | 3.75 | 91 | 1014.5 |
| 20260506211502 | 59 | 135 | 0.9 | 1.7 | 0.00 | 3.75 | 3.75 | 91 | 1014.5 |
| 20260506211400 | 59 | 68 | 0.9 | 3.5 | 0.00 | 3.75 | 3.75 | 91 | 1014.7 |
| 20260506211301 | 59 | 68 | 0.9 | 1.7 | 0.00 | 3.75 | 3.75 | 91 | 1014.2 |
| 20260506211201 | 59 | 68 | 1.7 | 3.5 | 0.00 | 3.75 | 3.75 | 91 | 1014.4 |
| 20260506211101 | 59 | 68 | 1.7 | 1.7 | 0.00 | 3.75 | 3.75 | 91 | 1014.5 |
| 20260506211001 | 59 | 90 | 1.7 | 1.7 | 0.00 | 3.75 | 3.75 | 91 | 1014.3 |
| 20260506210902 | 59 | 68 | 1.7 | 3.5 | 0.00 | 3.75 | 3.75 | 91 | 1014.4 |
| 20260506210802 | 59 | 68 | 1.7 | 3.5 | 0.00 | 3.75 | 3.75 | 91 | 1014.5 |
| 20260506210703 | 59 | 45 | 1.7 | 1.7 | 0.00 | 3.75 | 3.75 | 92 | 1014.5 |
| 20260506210602 | 59 | 90 | 0.9 | 1.7 | 0.00 | 3.75 | 3.75 | 92 | 1014.4 |
| 20260506210502 | 59 | 68 | 1.7 | 1.7 | 0.00 | 3.75 | 3.75 | 92 | 1014.5 |
| 20260506210401 | 59 | 45 | 1.7 | 3.5 | 0.00 | 3.75 | 3.75 | 92 | 1014.4 |
| 20260506210302 | 59 | 45 | 1.7 | 3.5 | 0.00 | 3.75 | 3.75 | 92 | 1014.4 |
| 20260506210202 | 59 | 68 | 1.7 | 1.7 | 0.00 | 3.75 | 3.75 | 92 | 1014.2 |
| 20260506210002 | 59 | 90 | 1.7 | 1.7 | 0.00 | 3.75 | 3.75 | 92 | 1014.3 |
| 20260506205901 | 59 | 68 | 1.7 | 1.7 | 0.00 | 3.75 | 3.75 | 92 | 1014.4 |
| 20260506205802 | 59 | 68 | 1.7 | 3.5 | 0.00 | 3.75 | 3.75 | 92 | 1014.2 |
| 20260506205702 | 60 | 112 | 0.9 | 1.7 | 0.00 | 3.75 | 3.75 | 92 | 1014.5 |
| 20260506205602 | 60 | 90 | 1.7 | 3.5 | 0.00 | 3.75 | 3.75 | 92 | 1014.4 |
| 20260506205501 | 60 | 90 | 1.7 | 1.7 | 0.00 | 3.75 | 3.75 | 92 | 1014.5 |
| 20260506205401 | 60 | 90 | 2.6 | 3.5 | 0.00 | 3.75 | 3.75 | 92 | 1014.3 |
| 20260506205301 | 60 | 68 | 1.7 | 3.5 | 0.00 | 3.75 | 3.75 | 92 | 1014.4 |
| 20260506205201 | 60 | 90 | 1.7 | 1.7 | 0.00 | 3.75 | 3.75 | 92 | 1014.5 |
| 20260506205102 | 60 | 90 | 1.7 | 1.7 | 0.00 | 3.75 | 3.75 | 92 | 1014.2 |
| 20260506205001 | 60 | 68 | 1.7 | 1.7 | 0.00 | 3.75 | 3.75 | 92 | 1014.3 |
| 20260506204901 | 60 | 90 | 1.7 | 1.7 | 0.00 | 3.75 | 3.75 | 92 | 1014.5 |
| 20260506204801 | 60 | 90 | 1.7 | 3.5 | 0.00 | 3.75 | 3.75 | 92 | 1014.2 |
| 20260506204701 | 60 | 68 | 1.7 | 1.7 | 0.00 | 3.75 | 3.75 | 92 | 1014.4 |
| 20260506204601 | 60 | 68 | 1.7 | 1.7 | 0.00 | 3.75 | 3.75 | 92 | 1014.3 |
| 20260506204501 | 60 | 135 | 0.9 | 1.7 | 0.00 | 3.75 | 3.75 | 92 | 1014.2 |
| 20260506204401 | 60 | 45 | 0.0 | 0.0 | 0.00 | 3.75 | 3.75 | 92 | 1014.3 |
| 20260506204301 | 60 | 45 | 0.0 | 0.0 | 0.00 | 3.75 | 3.75 | 92 | 1014.3 |
| 20260506204201 | 60 | 45 | 0.0 | 0.0 | 0.00 | 3.75 | 3.75 | 92 | 1014.1 |
| 20260506204101 | 60 | 45 | 0.0 | 0.0 | 0.00 | 3.75 | 3.75 | 92 | 1014.1 |
| 20260506204001 | 60 | 45 | 0.0 | 0.0 | 0.00 | 3.75 | 3.75 | 92 | 1014.3 |
| 20260506203901 | 60 | 45 | 0.0 | 0.0 | 0.00 | 3.75 | 3.75 | 92 | 1014.1 |
| 20260506203801 | 60 | 22 | 0.0 | 0.0 | 0.00 | 3.75 | 3.75 | 92 | 1014.0 |
| 20260506203701 | 60 | 22 | 0.0 | 0.0 | 0.00 | 3.75 | 3.75 | 91 | 1014.1 |
| 20260506203602 | 60 | 22 | 0.0 | 0.0 | 0.00 | 3.75 | 3.75 | 91 | 1013.9 |
| 20260506203502 | 60 | 22 | 0.0 | 0.0 | 0.00 | 3.75 | 3.75 | 91 | 1014.1 |
| 20260506203402 | 60 | 22 | 0.0 | 0.0 | 0.00 | 3.75 | 3.75 | 91 | 1014.1 |
| 20260506203301 | 60 | 22 | 0.0 | 0.0 | 0.00 | 3.75 | 3.75 | 91 | 1014.1 |
| 20260506203202 | 60 | 22 | 0.0 | 0.0 | 0.00 | 3.75 | 3.75 | 91 | 1014.2 |
| 20260506203102 | 60 | 22 | 0.0 | 0.0 | 0.00 | 3.75 | 3.75 | 91 | 1014.0 |
| 20260506203001 | 60 | 22 | 0.0 | 0.0 | 0.00 | 3.75 | 3.75 | 91 | 1014.1 |
| 20260506202901 | 60 | 22 | 0.0 | 0.0 | 0.00 | 3.75 | 3.75 | 91 | 1014.2 |
| 20260506202802 | 60 | 22 | 0.0 | 0.0 | 0.00 | 3.75 | 3.75 | 91 | 1014.0 |
| 20260506202702 | 60 | 22 | 0.0 | 0.0 | 0.00 | 3.75 | 3.75 | 91 | 1014.0 |
| 20260506202601 | 60 | 22 | 0.0 | 0.0 | 0.00 | 3.75 | 3.75 | 91 | 1014.1 |
| 20260506202501 | 60 | 22 | 0.0 | 0.0 | 0.00 | 3.75 | 3.75 | 91 | 1014.1 |
| 20260506202403 | 60 | 22 | 0.0 | 0.0 | 0.00 | 3.75 | 3.75 | 91 | 1014.1 |
| 20260506202301 | 60 | 22 | 0.0 | 0.0 | 0.00 | 3.75 | 3.75 | 91 | 1014.0 |
| 20260506202203 | 60 | 22 | 0.0 | 0.0 | 0.00 | 3.75 | 3.75 | 91 | 1013.9 |
| 20260506202102 | 60 | 22 | 0.0 | 0.0 | 0.00 | 3.75 | 3.75 | 91 | 1014.1 |
| 20260506202002 | 60 | 22 | 0.0 | 0.0 | 0.00 | 3.75 | 3.75 | 91 | 1014.0 |
| 20260506201901 | 61 | 22 | 0.0 | 0.0 | 0.00 | 3.75 | 3.75 | 91 | 1014.0 |
| 20260506201801 | 61 | 22 | 0.0 | 0.0 | 0.00 | 3.75 | 3.75 | 91 | 1013.7 |
| 20260506201702 | 61 | 22 | 0.0 | 0.0 | 0.00 | 3.75 | 3.75 | 91 | 1013.9 |
| 20260506201602 | 61 | 22 | 0.0 | 0.0 | 0.00 | 3.75 | 3.75 | 91 | 1013.9 |
| 20260506201502 | 61 | 22 | 0.0 | 0.0 | 0.00 | 3.75 | 3.75 | 91 | 1013.8 |
| 20260506201402 | 61 | 292 | 0.0 | 0.0 | 0.00 | 3.75 | 3.75 | 90 | 1013.8 |
| 20260506201302 | 61 | 270 | 0.0 | 0.0 | 0.00 | 3.75 | 3.75 | 90 | 1013.7 |
| 20260506201203 | 61 | 270 | 0.0 | 0.0 | 0.00 | 3.75 | 3.75 | 90 | 1014.0 |
| 20260506201102 | 61 | 270 | 0.0 | 0.0 | 0.00 | 3.75 | 3.75 | 90 | 1014.1 |
| 20260506201002 | 61 | 270 | 0.0 | 0.0 | 0.00 | 3.75 | 3.75 | 90 | 1013.9 |
| 20260506200902 | 61 | 270 | 0.0 | 0.0 | 0.00 | 3.75 | 3.75 | 90 | 1013.7 |
| 20260506200801 | 61 | 270 | 0.0 | 0.0 | 0.00 | 3.75 | 3.75 | 90 | 1013.9 |
| 20260506200701 | 61 | 270 | 0.0 | 0.0 | 0.00 | 3.75 | 3.75 | 90 | 1014.0 |
| 20260506200602 | 61 | 270 | 0.0 | 0.0 | 0.00 | 3.75 | 3.75 | 90 | 1014.0 |
| 20260506200502 | 61 | 270 | 0.0 | 0.0 | 0.00 | 3.75 | 3.75 | 90 | 1013.9 |
| 20260506200402 | 61 | 270 | 0.0 | 0.0 | 0.00 | 3.75 | 3.75 | 90 | 1013.9 |
| 20260506200301 | 61 | 270 | 0.0 | 0.0 | 0.00 | 3.75 | 3.75 | 90 | 1013.8 |
| 20260506200201 | 61 | 270 | 0.0 | 0.0 | 0.00 | 3.75 | 3.75 | 90 | 1013.8 |
| 20260506200001 | 61 | 270 | 0.0 | 0.0 | 0.00 | 3.75 | 3.75 | 90 | 1014.0 |
| 20260506195902 | 61 | 270 | 0.0 | 0.0 | 0.00 | 3.75 | 3.75 | 90 | 1013.8 |
| 20260506195802 | 61 | 270 | 0.0 | 0.0 | 0.00 | 3.75 | 3.75 | 90 | 1014.0 |
| 20260506195702 | 61 | 270 | 0.0 | 0.0 | 0.00 | 3.75 | 3.75 | 90 | 1013.9 |
| 20260506195602 | 61 | 270 | 0.0 | 0.0 | 0.00 | 3.75 | 3.75 | 90 | 1013.8 |
| 20260506195502 | 61 | 270 | 0.0 | 0.0 | 0.00 | 3.75 | 3.75 | 90 | 1013.8 |
| 20260506195401 | 61 | 270 | 0.0 | 0.0 | 0.00 | 3.75 | 3.75 | 90 | 1013.9 |
| 20260506195305 | 61 | 270 | 0.0 | 0.0 | 0.00 | 3.75 | 3.75 | 90 | 1013.6 |
| 20260506195203 | 61 | 270 | 0.0 | 0.0 | 0.00 | 3.75 | 3.75 | 90 | 1013.6 |
| 20260506195102 | 61 | 270 | 0.0 | 0.0 | 0.00 | 3.75 | 3.75 | 90 | 1013.7 |
| 20260506195002 | 61 | 270 | 0.0 | 0.0 | 0.00 | 3.75 | 3.75 | 89 | 1013.6 |
| 20260506194902 | 61 | 270 | 0.0 | 0.0 | 0.00 | 3.75 | 3.75 | 89 | 1013.5 |
| 20260506194802 | 61 | 270 | 0.0 | 0.0 | 0.00 | 3.75 | 3.75 | 89 | 1013.6 |
| 20260506194701 | 61 | 270 | 0.0 | 0.0 | 0.00 | 3.75 | 3.75 | 89 | 1013.8 |
| 20260506194602 | 61 | 270 | 0.0 | 0.0 | 0.00 | 3.75 | 3.75 | 89 | 1013.6 |
| 20260506194501 | 62 | 270 | 0.0 | 0.0 | 0.00 | 3.75 | 3.75 | 89 | 1013.7 |
| 20260506194402 | 62 | 270 | 0.0 | 0.0 | 0.00 | 3.75 | 3.75 | 89 | 1013.7 |
| 20260506194303 | 62 | 270 | 0.0 | 0.0 | 0.00 | 3.75 | 3.75 | 89 | 1013.7 |
| 20260506194202 | 62 | 270 | 0.0 | 0.0 | 0.00 | 3.75 | 3.75 | 89 | 1013.4 |
| 20260506194101 | 62 | 270 | 0.0 | 0.0 | 0.00 | 3.75 | 3.75 | 89 | 1013.8 |
| 20260506194002 | 62 | 270 | 0.0 | 0.0 | 0.00 | 3.75 | 3.75 | 88 | 1013.3 |
| 20260506193903 | 62 | 270 | 0.0 | 0.0 | 0.00 | 3.75 | 3.75 | 88 | 1013.4 |
| 20260506193802 | 62 | 270 | 0.0 | 0.0 | 0.00 | 3.75 | 3.75 | 88 | 1013.3 |
| 20260506193701 | 62 | 270 | 0.0 | 0.0 | 0.00 | 3.75 | 3.75 | 88 | 1013.5 |
| 20260506193601 | 62 | 270 | 0.0 | 0.0 | 0.00 | 3.75 | 3.75 | 88 | 1013.4 |
| 20260506193501 | 62 | 270 | 0.0 | 0.0 | 0.00 | 3.75 | 3.75 | 88 | 1013.3 |
| 20260506193401 | 62 | 270 | 0.0 | 0.0 | 0.00 | 3.75 | 3.75 | 88 | 1013.4 |
| 20260506193301 | 62 | 270 | 0.0 | 0.0 | 0.00 | 3.75 | 3.75 | 88 | 1013.3 |
| 20260506193201 | 62 | 270 | 0.0 | 0.0 | 0.00 | 3.75 | 3.75 | 88 | 1013.3 |
| 20260506193102 | 62 | 270 | 0.0 | 1.7 | 0.00 | 3.75 | 3.75 | 88 | 1013.2 |
| 20260506193001 | 62 | 270 | 0.9 | 1.7 | 0.00 | 3.75 | 3.75 | 88 | 1013.2 |
| 20260506192902 | 62 | 270 | 0.9 | 1.7 | 0.00 | 3.75 | 3.75 | 88 | 1013.3 |
| 20260506192802 | 62 | 270 | 0.9 | 1.7 | 0.00 | 3.75 | 3.75 | 88 | 1013.2 |
| 20260506192701 | 62 | 270 | 0.9 | 1.7 | 0.00 | 3.75 | 3.75 | 88 | 1013.3 |
| 20260506192602 | 62 | 270 | 0.9 | 1.7 | 0.00 | 3.75 | 3.75 | 88 | 1013.3 |
| 20260506192502 | 62 | 270 | 0.9 | 1.7 | 0.00 | 3.75 | 3.75 | 88 | 1013.2 |
| 20260506192402 | 62 | 270 | 1.7 | 1.7 | 0.00 | 3.75 | 3.75 | 87 | 1013.3 |
| 20260506192305 | 62 | 270 | 0.9 | 1.7 | 0.00 | 3.75 | 3.75 | 87 | 1013.3 |
| 20260506192202 | 62 | 270 | 0.0 | 0.0 | 0.00 | 3.75 | 3.75 | 87 | 1013.2 |
| 20260506192102 | 62 | 270 | 0.0 | 0.0 | 0.00 | 3.75 | 3.75 | 87 | 1013.0 |
| 20260506192002 | 62 | 270 | 0.0 | 0.0 | 0.00 | 3.75 | 3.75 | 87 | 1013.3 |
| 20260506191901 | 62 | 270 | 0.0 | 0.0 | 0.00 | 3.75 | 3.75 | 87 | 1013.2 |
| 20260506191801 | 62 | 270 | 1.7 | 1.7 | 0.00 | 3.75 | 3.75 | 87 | 1013.1 |
| 20260506191701 | 62 | 270 | 0.9 | 1.7 | 0.00 | 3.75 | 3.75 | 87 | 1013.1 |
| 20260506191602 | 62 | 270 | 0.9 | 1.7 | 0.00 | 3.75 | 3.75 | 87 | 1013.2 |
| 20260506191502 | 62 | 270 | 0.9 | 1.7 | 0.00 | 3.75 | 3.75 | 87 | 1013.0 |
| 20260506191402 | 62 | 270 | 1.7 | 1.7 | 0.00 | 3.75 | 3.75 | 87 | 1013.1 |
| 20260506191301 | 62 | 292 | 2.6 | 3.5 | 0.00 | 3.75 | 3.75 | 87 | 1013.0 |
| 20260506191202 | 62 | 270 | 0.9 | 1.7 | 0.00 | 3.75 | 3.75 | 87 | 1012.9 |
| 20260506191102 | 62 | 270 | 1.7 | 3.5 | 0.00 | 3.75 | 3.75 | 87 | 1013.0 |
| 20260506191002 | 62 | 292 | 1.7 | 1.7 | 0.00 | 3.75 | 3.75 | 87 | 1012.9 |
| 20260506190902 | 62 | 292 | 1.7 | 1.7 | 0.00 | 3.75 | 3.75 | 87 | 1013.1 |
| 20260506190802 | 62 | 292 | 1.7 | 1.7 | 0.00 | 3.75 | 3.75 | 87 | 1013.0 |
| 20260506190703 | 62 | 270 | 1.7 | 1.7 | 0.00 | 3.75 | 3.75 | 87 | 1013.1 |
| 20260506190603 | 62 | 270 | 0.9 | 1.7 | 0.00 | 3.75 | 3.75 | 87 | 1013.0 |
| 20260506190502 | 62 | 270 | 1.7 | 1.7 | 0.00 | 3.75 | 3.75 | 87 | 1013.1 |
| 20260506190404 | 62 | 270 | 1.7 | 1.7 | 0.00 | 3.75 | 3.75 | 87 | 1012.9 |
| 20260506190303 | 62 | 270 | 1.7 | 1.7 | 0.00 | 3.75 | 3.75 | 87 | 1012.9 |
| 20260506190201 | 62 | 270 | 1.7 | 1.7 | 0.00 | 3.75 | 3.75 | 87 | 1013.0 |
| 20260506190002 | 62 | 292 | 1.7 | 1.7 | 0.00 | 3.75 | 3.75 | 87 | 1012.8 |
| 20260506185902 | 62 | 270 | 1.7 | 3.5 | 0.00 | 3.75 | 3.75 | 87 | 1012.7 |
| 20260506185802 | 62 | 292 | 0.9 | 1.7 | 0.00 | 3.75 | 3.75 | 87 | 1012.8 |
| 20260506185702 | 62 | 270 | 0.9 | 1.7 | 0.00 | 3.75 | 3.75 | 87 | 1012.9 |
| 20260506185602 | 62 | 270 | 1.7 | 1.7 | 0.00 | 3.75 | 3.75 | 87 | 1012.7 |
| 20260506185501 | 62 | 270 | 1.7 | 3.5 | 0.00 | 3.75 | 3.75 | 87 | 1012.8 |
| 20260506185402 | 62 | 292 | 1.7 | 1.7 | 0.00 | 3.75 | 3.75 | 87 | 1012.9 |
| 20260506185306 | 63 | 270 | 1.7 | 1.7 | 0.00 | 3.75 | 3.75 | 87 | 1012.7 |
| 20260506185201 | 63 | 270 | 0.9 | 1.7 | 0.00 | 3.75 | 3.75 | 87 | 1012.7 |
| 20260506185101 | 63 | 248 | 0.9 | 1.7 | 0.00 | 3.75 | 3.75 | 87 | 1012.5 |
| 20260506185001 | 62 | 292 | 1.7 | 3.5 | 0.00 | 3.75 | 3.75 | 87 | 1012.9 |
| 20260506184902 | 63 | 292 | 1.7 | 1.7 | 0.00 | 3.75 | 3.75 | 87 | 1012.6 |
| 20260506184802 | 63 | 270 | 1.7 | 3.5 | 0.00 | 3.75 | 3.75 | 87 | 1012.7 |
| 20260506184701 | 63 | 292 | 1.7 | 1.7 | 0.00 | 3.75 | 3.75 | 87 | 1012.8 |
| 20260506184601 | 63 | 292 | 1.7 | 3.5 | 0.00 | 3.75 | 3.75 | 87 | 1012.8 |
| 20260506184502 | 63 | 292 | 1.7 | 1.7 | 0.00 | 3.75 | 3.75 | 87 | 1012.7 |
| 20260506184402 | 63 | 270 | 1.7 | 1.7 | 0.00 | 3.75 | 3.75 | 87 | 1012.7 |
| 20260506184301 | 63 | 270 | 1.7 | 3.5 | 0.00 | 3.75 | 3.75 | 87 | 1012.8 |
| 20260506184201 | 63 | 270 | 1.7 | 1.7 | 0.00 | 3.75 | 3.75 | 86 | 1012.7 |
| 20260506184102 | 63 | 270 | 1.7 | 3.5 | 0.00 | 3.75 | 3.75 | 86 | 1012.6 |
| 20260506184001 | 63 | 270 | 1.7 | 3.5 | 0.00 | 3.75 | 3.75 | 86 | 1012.8 |
| 20260506183901 | 63 | 292 | 2.6 | 3.5 | 0.00 | 3.75 | 3.75 | 86 | 1012.8 |
| 20260506183802 | 63 | 248 | 1.7 | 3.5 | 0.00 | 3.75 | 3.75 | 86 | 1012.7 |
| 20260506183702 | 63 | 292 | 1.7 | 3.5 | 0.00 | 3.75 | 3.75 | 86 | 1012.7 |
| 20260506183602 | 63 | 270 | 1.7 | 3.5 | 0.00 | 3.75 | 3.75 | 86 | 1012.5 |
| 20260506183502 | 63 | 270 | 1.7 | 3.5 | 0.00 | 3.75 | 3.75 | 86 | 1012.5 |
| 20260506183402 | 63 | 270 | 2.6 | 3.5 | 0.00 | 3.75 | 3.75 | 86 | 1012.5 |
| 20260506183302 | 63 | 248 | 1.7 | 3.5 | 0.00 | 3.75 | 3.75 | 85 | 1012.9 |
| 20260506183201 | 63 | 292 | 1.7 | 3.5 | 0.00 | 3.75 | 3.75 | 85 | 1012.4 |
| 20260506183101 | 63 | 270 | 1.7 | 3.5 | 0.00 | 3.75 | 3.75 | 85 | 1012.7 |
| 20260506183001 | 63 | 270 | 1.7 | 3.5 | 0.00 | 3.75 | 3.75 | 85 | 1012.8 |
| 20260506182902 | 63 | 270 | 1.7 | 3.5 | 0.00 | 3.75 | 3.75 | 85 | 1012.7 |
| 20260506182801 | 63 | 270 | 1.7 | 3.5 | 0.00 | 3.75 | 3.75 | 85 | 1012.5 |
| 20260506182701 | 63 | 270 | 2.6 | 3.5 | 0.00 | 3.75 | 3.75 | 84 | 1012.4 |
| 20260506182601 | 63 | 270 | 1.7 | 3.5 | 0.00 | 3.75 | 3.75 | 84 | 1012.7 |
| 20260506182502 | 63 | 270 | 1.7 | 1.7 | 0.00 | 3.75 | 3.75 | 84 | 1012.8 |
| 20260506182402 | 63 | 270 | 1.7 | 1.7 | 0.00 | 3.75 | 3.75 | 84 | 1012.6 |
| 20260506182302 | 63 | 270 | 1.7 | 1.7 | 0.00 | 3.75 | 3.75 | 84 | 1012.7 |
| 20260506182202 | 63 | 292 | 1.7 | 3.5 | 0.00 | 3.75 | 3.75 | 84 | 1012.5 |
| 20260506182101 | 63 | 270 | 2.6 | 3.5 | 0.00 | 3.75 | 3.75 | 84 | 1012.5 |
| 20260506182002 | 63 | 270 | 1.7 | 3.5 | 0.00 | 3.75 | 3.75 | 83 | 1012.9 |
| 20260506181901 | 63 | 270 | 1.7 | 3.5 | 0.00 | 3.75 | 3.75 | 83 | 1012.6 |
| 20260506181802 | 63 | 270 | 1.7 | 3.5 | 0.00 | 3.75 | 3.75 | 83 | 1012.8 |
| 20260506181702 | 63 | 292 | 1.7 | 3.5 | 0.00 | 3.75 | 3.75 | 83 | 1012.6 |
| 20260506181602 | 63 | 270 | 2.6 | 3.5 | 0.00 | 3.75 | 3.75 | 83 | 1012.4 |
| 20260506181503 | 63 | 248 | 1.7 | 1.7 | 0.00 | 3.75 | 3.75 | 83 | 1012.5 |
| 20260506181402 | 63 | 248 | 2.6 | 5.2 | 0.00 | 3.75 | 3.75 | 82 | 1012.5 |
| 20260506181303 | 63 | 292 | 2.6 | 5.2 | 0.00 | 3.75 | 3.75 | 82 | 1012.5 |
| 20260506181202 | 63 | 270 | 3.5 | 5.2 | 0.00 | 3.75 | 3.75 | 82 | 1012.5 |
| 20260506181103 | 63 | 270 | 4.3 | 6.1 | 0.00 | 3.75 | 3.75 | 82 | 1012.5 |
| 20260506181003 | 63 | 292 | 3.5 | 3.5 | 0.00 | 3.75 | 3.75 | 82 | 1012.5 |
| 20260506180902 | 63 | 270 | 3.5 | 3.5 | 0.00 | 3.75 | 3.75 | 82 | 1012.6 |
| 20260506180802 | 63 | 292 | 3.5 | 5.2 | 0.00 | 3.75 | 3.75 | 82 | 1012.5 |
| 20260506180701 | 63 | 248 | 3.5 | 5.2 | 0.00 | 3.75 | 3.75 | 82 | 1012.6 |
| 20260506180602 | 63 | 270 | 3.5 | 6.1 | 0.00 | 3.75 | 3.75 | 82 | 1012.6 |
| 20260506180501 | 63 | 270 | 3.5 | 6.1 | 0.00 | 3.75 | 3.75 | 82 | 1012.4 |
| 20260506180402 | 63 | 270 | 3.5 | 6.1 | 0.00 | 3.75 | 3.75 | 82 | 1012.4 |
| 20260506180302 | 63 | 270 | 3.5 | 6.1 | 0.00 | 3.75 | 3.75 | 82 | 1012.6 |
| 20260506180202 | 63 | 270 | 3.5 | 6.1 | 0.00 | 3.75 | 3.75 | 82 | 1012.5 |
| 20260506180101 | 63 | 270 | 3.5 | 6.1 | 0.00 | 3.75 | 3.75 | 82 | 1012.7 |
| 20260506180002 | 63 | 270 | 3.5 | 6.1 | 0.00 | 3.75 | 3.75 | 82 | 1012.3 |
| 20260506175901 | 63 | 292 | 3.5 | 6.1 | 0.00 | 3.75 | 3.75 | 82 | 1012.4 |
| 20260506175801 | 63 | 292 | 3.5 | 6.1 | 0.00 | 3.75 | 3.75 | 82 | 1012.4 |
| 20260506175701 | 63 | 292 | 3.5 | 7.0 | 0.00 | 3.75 | 3.75 | 82 | 1012.6 |
| 20260506175602 | 63 | 248 | 3.5 | 5.2 | 0.00 | 3.75 | 3.75 | 82 | 1012.4 |
| 20260506175502 | 63 | 292 | 3.5 | 6.1 | 0.00 | 3.75 | 3.75 | 82 | 1012.2 |
| 20260506175401 | 64 | 270 | 3.5 | 5.2 | 0.00 | 3.75 | 3.75 | 82 | 1012.4 |
| 20260506175301 | 64 | 270 | 2.6 | 3.5 | 0.00 | 3.75 | 3.75 | 82 | 1012.3 |
| 20260506175201 | 64 | 270 | 2.6 | 3.5 | 0.00 | 3.75 | 3.75 | 82 | 1012.4 |
| 20260506175101 | 64 | 270 | 3.5 | 3.5 | 0.00 | 3.75 | 3.75 | 82 | 1012.4 |
| 20260506175001 | 64 | 248 | 3.5 | 5.2 | 0.00 | 3.75 | 3.75 | 82 | 1012.4 |
| 20260506174901 | 64 | 270 | 3.5 | 5.2 | 0.00 | 3.75 | 3.75 | 82 | 1012.2 |
| 20260506174802 | 64 | 292 | 1.7 | 3.5 | 0.00 | 3.75 | 3.75 | 82 | 1012.4 |
| 20260506174702 | 64 | 270 | 2.6 | 3.5 | 0.00 | 3.75 | 3.75 | 82 | 1012.4 |
| 20260506174602 | 64 | 292 | 2.6 | 3.5 | 0.00 | 3.75 | 3.75 | 81 | 1012.4 |
| 20260506174502 | 64 | 270 | 3.5 | 3.5 | 0.00 | 3.75 | 3.75 | 81 | 1012.4 |
| 20260506174402 | 64 | 270 | 3.5 | 3.5 | 0.00 | 3.75 | 3.75 | 81 | 1012.2 |
| 20260506174301 | 64 | 248 | 3.5 | 5.2 | 0.00 | 3.75 | 3.75 | 80 | 1012.3 |
| 20260506174201 | 64 | 270 | 3.5 | 5.2 | 0.00 | 3.75 | 3.75 | 80 | 1012.2 |
| 20260506174102 | 64 | 270 | 2.6 | 5.2 | 0.00 | 3.75 | 3.75 | 80 | 1012.2 |
| 20260506174002 | 64 | 270 | 1.7 | 3.5 | 0.00 | 3.75 | 3.75 | 80 | 1012.3 |
| 20260506173901 | 64 | 292 | 3.5 | 6.1 | 0.00 | 3.75 | 3.75 | 79 | 1012.4 |
| 20260506173801 | 64 | 270 | 3.5 | 5.2 | 0.00 | 3.75 | 3.75 | 79 | 1012.2 |
| 20260506173702 | 64 | 248 | 3.5 | 3.5 | 0.00 | 3.75 | 3.75 | 79 | 1012.3 |
| 20260506173602 | 64 | 248 | 3.5 | 3.5 | 0.00 | 3.75 | 3.75 | 79 | 1012.2 |
| 20260506173501 | 64 | 292 | 3.5 | 6.1 | 0.00 | 3.75 | 3.75 | 80 | 1012.1 |
| 20260506173402 | 64 | 292 | 2.6 | 3.5 | 0.00 | 3.75 | 3.75 | 80 | 1012.3 |
| 20260506173301 | 64 | 292 | 3.5 | 5.2 | 0.00 | 3.75 | 3.75 | 79 | 1012.3 |
| 20260506173201 | 64 | 270 | 1.7 | 3.5 | 0.00 | 3.75 | 3.75 | 79 | 1012.1 |
| 20260506173101 | 64 | 270 | 1.7 | 3.5 | 0.00 | 3.75 | 3.75 | 79 | 1012.2 |
| 20260506173001 | 64 | 248 | 2.6 | 5.2 | 0.00 | 3.75 | 3.75 | 79 | 1012.2 |
| 20260506172901 | 64 | 292 | 1.7 | 5.2 | 0.00 | 3.75 | 3.75 | 80 | 1012.0 |
| 20260506172801 | 64 | 270 | 3.5 | 5.2 | 0.00 | 3.75 | 3.75 | 80 | 1012.1 |
| 20260506172701 | 64 | 248 | 3.5 | 6.1 | 0.00 | 3.75 | 3.75 | 79 | 1012.2 |
| 20260506172602 | 64 | 270 | 1.7 | 3.5 | 0.00 | 3.75 | 3.75 | 80 | 1012.2 |
| 20260506172502 | 64 | 248 | 0.0 | 1.7 | 0.00 | 3.75 | 3.75 | 80 | 1012.1 |
| 20260506172402 | 64 | 270 | 1.7 | 5.2 | 0.00 | 3.75 | 3.75 | 80 | 1012.4 |
| 20260506172306 | 64 | 45 | 1.7 | 3.5 | 0.00 | 3.75 | 3.75 | 81 | 1012.3 |
| 20260506172202 | 64 | 270 | 1.7 | 3.5 | 0.00 | 3.75 | 3.75 | 81 | 1012.1 |
| 20260506172101 | 64 | 292 | 3.5 | 3.5 | 0.00 | 3.75 | 3.75 | 81 | 1012.3 |
| 20260506172002 | 64 | 292 | 2.6 | 3.5 | 0.00 | 3.75 | 3.75 | 81 | 1012.2 |
| 20260506171902 | 64 | 248 | 1.7 | 3.5 | 0.00 | 3.75 | 3.75 | 81 | 1012.3 |
| 20260506171801 | 64 | 248 | 1.7 | 1.7 | 0.00 | 3.75 | 3.75 | 81 | 1012.2 |
| 20260506171701 | 64 | 248 | 1.7 | 3.5 | 0.00 | 3.75 | 3.75 | 81 | 1012.1 |
| 20260506171602 | 64 | 248 | 1.7 | 3.5 | 0.00 | 3.75 | 3.75 | 81 | 1012.0 |
| 20260506171501 | 64 | 248 | 1.7 | 3.5 | 0.00 | 3.75 | 3.75 | 81 | 1012.0 |
| 20260506171401 | 64 | 292 | 2.6 | 5.2 | 0.00 | 3.75 | 3.75 | 81 | 1012.2 |
| 20260506171301 | 64 | 292 | 2.6 | 3.5 | 0.00 | 3.75 | 3.75 | 81 | 1012.3 |
| 20260506171202 | 64 | 270 | 1.7 | 3.5 | 0.00 | 3.75 | 3.75 | 81 | 1012.0 |
| 20260506171101 | 64 | 270 | 1.7 | 3.5 | 0.00 | 3.75 | 3.75 | 81 | 1012.4 |
| 20260506171001 | 64 | 292 | 4.3 | 6.1 | 0.00 | 3.75 | 3.75 | 80 | 1012.1 |
| 20260506170902 | 64 | 292 | 2.6 | 5.2 | 0.00 | 3.75 | 3.75 | 80 | 1012.2 |
| 20260506170801 | 64 | 270 | 3.5 | 7.0 | 0.00 | 3.75 | 3.75 | 80 | 1012.0 |
| 20260506170701 | 64 | 292 | 5.2 | 7.0 | 0.00 | 3.75 | 3.75 | 80 | 1012.1 |
| 20260506170601 | 64 | 292 | 4.3 | 7.8 | 0.00 | 3.75 | 3.75 | 80 | 1012.1 |
| 20260506170501 | 64 | 292 | 3.5 | 6.1 | 0.00 | 3.75 | 3.75 | 80 | 1012.2 |
| 20260506170401 | 64 | 270 | 5.2 | 7.0 | 0.00 | 3.75 | 3.75 | 80 | 1012.3 |
| 20260506170301 | 64 | 292 | 4.3 | 7.0 | 0.00 | 3.75 | 3.75 | 80 | 1012.2 |
| 20260506170200 | 65 | 270 | 1.7 | 3.5 | 0.00 | 3.75 | 3.75 | 81 | 1012.3 |
| 20260506170000 | 65 | 248 | 1.7 | 1.7 | 0.00 | 3.75 | 3.75 | 81 | 1012.3 |
| 20260506165901 | 65 | 248 | 2.6 | 5.2 | 0.00 | 3.75 | 3.75 | 80 | 1012.4 |
| 20260506165801 | 64 | 248 | 1.7 | 3.5 | 0.00 | 3.75 | 3.75 | 80 | 1012.2 |
| 20260506165701 | 64 | 292 | 2.6 | 3.5 | 0.00 | 3.75 | 3.75 | 80 | 1012.1 |
| 20260506165602 | 64 | 270 | 3.5 | 5.2 | 0.00 | 3.75 | 3.75 | 80 | 1012.3 |
| 20260506165502 | 64 | 292 | 3.5 | 6.1 | 0.00 | 3.75 | 3.75 | 80 | 1012.5 |
| 20260506165401 | 64 | 292 | 4.3 | 6.1 | 0.00 | 3.75 | 3.75 | 79 | 1012.2 |
| 20260506165305 | 64 | 248 | 1.7 | 3.5 | 0.00 | 3.75 | 3.75 | 80 | 1012.3 |
| 20260506165201 | 64 | 225 | 1.7 | 5.2 | 0.00 | 3.75 | 3.75 | 80 | 1012.3 |
| 20260506165101 | 64 | 270 | 3.5 | 5.2 | 0.00 | 3.75 | 3.75 | 79 | 1012.4 |
| 20260506165002 | 64 | 270 | 1.7 | 3.5 | 0.00 | 3.75 | 3.75 | 80 | 1012.5 |
| 20260506164902 | 64 | 270 | 3.5 | 6.1 | 0.00 | 3.75 | 3.75 | 79 | 1012.2 |
| 20260506164801 | 64 | 292 | 3.5 | 5.2 | 0.00 | 3.75 | 3.75 | 79 | 1012.3 |
| 20260506164701 | 64 | 270 | 3.5 | 6.1 | 0.00 | 3.75 | 3.75 | 79 | 1012.2 |
| 20260506164601 | 64 | 270 | 5.2 | 7.0 | 0.00 | 3.75 | 3.75 | 79 | 1012.4 |
| 20260506164502 | 64 | 270 | 4.3 | 6.1 | 0.00 | 3.75 | 3.75 | 79 | 1012.2 |
| 20260506164401 | 64 | 292 | 5.2 | 7.0 | 0.00 | 3.75 | 3.75 | 79 | 1012.2 |
| 20260506164301 | 65 | 292 | 3.5 | 6.1 | 0.00 | 3.75 | 3.75 | 79 | 1012.3 |
| 20260506164201 | 65 | 270 | 2.6 | 3.5 | 0.00 | 3.75 | 3.75 | 79 | 1012.4 |
| 20260506164101 | 65 | 248 | 3.5 | 5.2 | 0.00 | 3.75 | 3.75 | 79 | 1012.3 |
| 20260506164000 | 65 | 248 | 3.5 | 5.2 | 0.00 | 3.75 | 3.75 | 79 | 1012.4 |
| 20260506163902 | 64 | 248 | 5.2 | 7.0 | 0.00 | 3.75 | 3.75 | 78 | 1012.0 |
| 20260506163802 | 65 | 248 | 4.3 | 6.1 | 0.00 | 3.75 | 3.75 | 78 | 1012.5 |
| 20260506163702 | 65 | 270 | 3.5 | 6.1 | 0.00 | 3.75 | 3.75 | 79 | 1012.2 |
| 20260506163602 | 65 | 292 | 2.6 | 3.5 | 0.00 | 3.75 | 3.75 | 78 | 1012.4 |
| 20260506163502 | 65 | 270 | 3.5 | 3.5 | 0.00 | 3.75 | 3.75 | 78 | 1012.3 |
| 20260506163402 | 65 | 270 | 3.5 | 5.2 | 0.00 | 3.75 | 3.75 | 78 | 1012.2 |
| 20260506163302 | 65 | 292 | 3.5 | 6.1 | 0.00 | 3.75 | 3.75 | 78 | 1012.4 |
| 20260506163201 | 65 | 292 | 4.3 | 7.0 | 0.00 | 3.75 | 3.75 | 77 | 1012.3 |
| 20260506163101 | 65 | 270 | 3.5 | 7.0 | 0.00 | 3.75 | 3.75 | 77 | 1012.2 |
| 20260506163002 | 65 | 292 | 6.1 | 7.8 | 0.00 | 3.75 | 3.75 | 77 | 1012.4 |
| 20260506162901 | 65 | 292 | 4.3 | 9.6 | 0.00 | 3.75 | 3.75 | 77 | 1012.2 |
| 20260506162801 | 65 | 270 | 3.5 | 6.1 | 0.00 | 3.75 | 3.75 | 77 | 1012.4 |
| 20260506162701 | 65 | 270 | 3.5 | 5.2 | 0.00 | 3.75 | 3.75 | 77 | 1012.3 |
| 20260506162601 | 65 | 292 | 3.5 | 5.2 | 0.00 | 3.75 | 3.75 | 77 | 1012.3 |
| 20260506162502 | 65 | 292 | 5.2 | 7.0 | 0.00 | 3.75 | 3.75 | 76 | 1012.2 |
| 20260506162402 | 65 | 292 | 3.5 | 5.2 | 0.00 | 3.75 | 3.75 | 76 | 1012.0 |
| 20260506162306 | 65 | 270 | 5.2 | 6.1 | 0.00 | 3.75 | 3.75 | 76 | 1012.3 |
| 20260506162201 | 65 | 292 | 5.2 | 7.8 | 0.00 | 3.75 | 3.75 | 75 | 1012.1 |
| 20260506162101 | 65 | 292 | 5.2 | 7.8 | 0.00 | 3.75 | 3.75 | 75 | 1012.3 |
| 20260506162001 | 65 | 270 | 3.5 | 7.0 | 0.00 | 3.75 | 3.75 | 75 | 1012.4 |
| 20260506161902 | 65 | 248 | 3.5 | 6.1 | 0.00 | 3.75 | 3.75 | 75 | 1012.2 |
| 20260506161801 | 65 | 292 | 5.2 | 7.8 | 0.00 | 3.75 | 3.75 | 75 | 1012.3 |
| 20260506161701 | 65 | 270 | 4.3 | 7.8 | 0.00 | 3.75 | 3.75 | 75 | 1012.0 |
| 20260506161601 | 65 | 248 | 5.2 | 7.0 | 0.00 | 3.75 | 3.75 | 76 | 1012.2 |
| 20260506161501 | 65 | 292 | 5.2 | 7.0 | 0.00 | 3.75 | 3.75 | 76 | 1012.3 |
| 20260506161401 | 65 | 248 | 4.3 | 7.8 | 0.00 | 3.75 | 3.75 | 76 | 1012.3 |
| 20260506161301 | 65 | 270 | 5.2 | 7.0 | 0.00 | 3.75 | 3.75 | 76 | 1012.2 |
| 20260506161201 | 65 | 292 | 3.5 | 6.1 | 0.00 | 3.75 | 3.75 | 76 | 1012.3 |
| 20260506161101 | 65 | 270 | 4.3 | 7.0 | 0.00 | 3.75 | 3.75 | 76 | 1012.2 |
| 20260506161000 | 65 | 292 | 7.0 | 9.6 | 0.00 | 3.75 | 3.75 | 75 | 1012.3 |
| 20260506160901 | 66 | 292 | 4.3 | 7.0 | 0.00 | 3.75 | 3.75 | 75 | 1012.3 |
| 20260506160801 | 66 | 248 | 4.3 | 7.0 | 0.00 | 3.75 | 3.75 | 75 | 1012.1 |
| 20260506160701 | 66 | 248 | 5.2 | 7.0 | 0.00 | 3.75 | 3.75 | 75 | 1012.1 |
| 20260506160601 | 66 | 270 | 3.5 | 6.1 | 0.00 | 3.75 | 3.75 | 74 | 1012.3 |
| 20260506160501 | 66 | 270 | 5.2 | 9.6 | 0.00 | 3.75 | 3.75 | 74 | 1012.3 |
| 20260506160401 | 66 | 270 | 3.5 | 3.5 | 0.00 | 3.75 | 3.75 | 74 | 1012.4 |
| 20260506160301 | 66 | 292 | 3.5 | 6.1 | 0.00 | 3.75 | 3.75 | 74 | 1012.3 |
| 20260506160202 | 66 | 292 | 3.5 | 6.1 | 0.00 | 3.75 | 3.75 | 74 | 1012.4 |
| 20260506160001 | 67 | 270 | 3.5 | 5.2 | 0.00 | 3.75 | 3.75 | 73 | 1012.2 |
| 20260506155902 | 67 | 292 | 2.6 | 3.5 | 0.00 | 3.75 | 3.75 | 73 | 1012.1 |
| 20260506155801 | 67 | 22 | 3.5 | 5.2 | 0.00 | 3.75 | 3.75 | 72 | 1012.3 |
| 20260506155702 | 67 | 270 | 5.2 | 7.8 | 0.00 | 3.75 | 3.75 | 71 | 1012.1 |
| 20260506155601 | 67 | 270 | 6.1 | 7.8 | 0.00 | 3.75 | 3.75 | 71 | 1012.3 |
| 20260506155501 | 67 | 292 | 4.3 | 7.8 | 0.00 | 3.75 | 3.75 | 71 | 1012.2 |
| 20260506155402 | 67 | 248 | 4.3 | 7.0 | 0.00 | 3.75 | 3.75 | 71 | 1012.5 |
| 20260506155305 | 67 | 270 | 3.5 | 5.2 | 0.00 | 3.75 | 3.75 | 72 | 1012.1 |
| 20260506155201 | 67 | 292 | 4.3 | 7.0 | 0.00 | 3.75 | 3.75 | 72 | 1012.1 |
| 20260506155102 | 67 | 292 | 5.2 | 9.6 | 0.00 | 3.75 | 3.75 | 72 | 1012.3 |
| 20260506155001 | 67 | 270 | 3.5 | 5.2 | 0.00 | 3.75 | 3.75 | 72 | 1012.0 |
| 20260506154901 | 66 | 270 | 5.2 | 7.0 | 0.00 | 3.75 | 3.75 | 71 | 1012.4 |
| 20260506154801 | 66 | 270 | 7.0 | 9.6 | 0.00 | 3.75 | 3.75 | 70 | 1012.2 |
| 20260506154701 | 67 | 292 | 6.1 | 9.6 | 0.00 | 3.75 | 3.75 | 70 | 1012.2 |
| 20260506154602 | 67 | 270 | 3.5 | 11.3 | 0.00 | 3.75 | 3.75 | 70 | 1012.3 |
| 20260506154502 | 67 | 315 | 3.5 | 7.8 | 0.00 | 3.75 | 3.75 | 69 | 1012.4 |
| 20260506154402 | 67 | 292 | 4.3 | 7.0 | 0.00 | 3.75 | 3.75 | 69 | 1012.2 |
| 20260506154301 | 67 | 292 | 4.3 | 7.0 | 0.00 | 3.75 | 3.75 | 69 | 1012.3 |
| 20260506154202 | 67 | 292 | 2.6 | 5.2 | 0.00 | 3.75 | 3.75 | 69 | 1012.2 |
| 20260506154102 | 67 | 292 | 1.7 | 5.2 | 0.00 | 3.75 | 3.75 | 69 | 1012.1 |
| 20260506154002 | 66 | 45 | 3.5 | 7.0 | 0.00 | 3.75 | 3.75 | 69 | 1012.3 |
| 20260506153902 | 66 | 292 | 7.0 | 11.3 | 0.00 | 3.75 | 3.75 | 68 | 1012.3 |
| 20260506153801 | 66 | 292 | 7.0 | 9.6 | 0.00 | 3.75 | 3.75 | 68 | 1012.3 |
| 20260506153702 | 66 | 292 | 7.0 | 9.6 | 0.00 | 3.75 | 3.75 | 67 | 1012.2 |
| 20260506153602 | 66 | 292 | 9.6 | 12.2 | 0.00 | 3.75 | 3.75 | 67 | 1012.2 |
| 20260506153502 | 67 | 270 | 8.7 | 11.3 | 0.00 | 3.75 | 3.75 | 66 | 1012.2 |
| 20260506153401 | 67 | 248 | 8.7 | 11.3 | 0.00 | 3.75 | 3.75 | 65 | 1012.2 |
| 20260506153301 | 68 | 292 | 4.3 | 7.0 | 0.00 | 3.75 | 3.75 | 66 | 1012.3 |
| 20260506153201 | 68 | 270 | 7.0 | 13.9 | 0.00 | 3.75 | 3.75 | 64 | 1012.2 |
| 20260506153101 | 68 | 270 | 3.5 | 6.1 | 0.00 | 3.75 | 3.75 | 65 | 1012.2 |
| 20260506153001 | 68 | 225 | 3.5 | 6.1 | 0.00 | 3.75 | 3.75 | 63 | 1012.2 |
| 20260506152901 | 68 | 292 | 3.5 | 7.8 | 0.00 | 3.75 | 3.75 | 63 | 1012.3 |
| 20260506152801 | 68 | 248 | 2.6 | 6.1 | 0.00 | 3.75 | 3.75 | 62 | 1012.4 |
| 20260506152701 | 68 | 112 | 5.2 | 12.2 | 0.00 | 3.75 | 3.75 | 61 | 1012.1 |
| 20260506152601 | 68 | 270 | 3.5 | 9.6 | 0.00 | 3.75 | 3.75 | 61 | 1012.2 |
| 20260506152501 | 68 | 248 | 4.3 | 9.6 | 0.00 | 3.75 | 3.75 | 60 | 1012.2 |
| 20260506152401 | 68 | 270 | 1.7 | 3.5 | 0.00 | 3.75 | 3.75 | 61 | 1012.3 |
| 20260506152301 | 68 | 225 | 3.5 | 7.0 | 0.00 | 3.75 | 3.75 | 60 | 1012.3 |
| 20260506152201 | 68 | 292 | 7.8 | 11.3 | 0.00 | 3.75 | 3.75 | 62 | 1012.2 |
| 20260506152101 | 68 | 292 | 5.2 | 7.8 | 0.00 | 3.75 | 3.75 | 65 | 1012.2 |
| 20260506152001 | 68 | 292 | 7.0 | 9.6 | 0.00 | 3.75 | 3.75 | 64 | 1012.2 |
| 20260506151901 | 68 | 248 | 6.1 | 9.6 | 0.00 | 3.75 | 3.75 | 65 | 1012.1 |
| 20260506151802 | 68 | 270 | 7.0 | 9.6 | 0.00 | 3.75 | 3.75 | 66 | 1012.2 |
| 20260506151702 | 68 | 270 | 6.1 | 7.8 | 0.00 | 3.75 | 3.75 | 66 | 1012.2 |
| 20260506151602 | 68 | 270 | 3.5 | 9.6 | 0.00 | 3.75 | 3.75 | 66 | 1012.2 |
| 20260506151502 | 68 | 270 | 7.0 | 9.6 | 0.00 | 3.75 | 3.75 | 65 | 1012.2 |
| 20260506151402 | 68 | 315 | 3.5 | 6.1 | 0.00 | 3.75 | 3.75 | 66 | 1012.2 |
| 20260506151302 | 68 | 0 | 3.5 | 7.8 | 0.00 | 3.75 | 3.75 | 66 | 1012.3 |
| 20260506151201 | 68 | 292 | 5.2 | 9.6 | 0.00 | 3.75 | 3.75 | 66 | 1012.3 |
| 20260506151101 | 68 | 270 | 3.5 | 11.3 | 0.00 | 3.75 | 3.75 | 67 | 1012.1 |
| 20260506151001 | 68 | 270 | 3.5 | 7.0 | 0.00 | 3.75 | 3.75 | 67 | 1012.3 |
| 20260506150901 | 68 | 270 | 3.5 | 7.0 | 0.00 | 3.75 | 3.75 | 67 | 1012.1 |
| 20260506150801 | 68 | 315 | 3.5 | 6.1 | 0.00 | 3.75 | 3.75 | 68 | 1012.2 |
| 20260506150700 | 68 | 248 | 3.5 | 6.1 | 0.00 | 3.75 | 3.75 | 69 | 1012.2 |
| 20260506150601 | 68 | 292 | 4.3 | 13.0 | 0.00 | 3.75 | 3.75 | 70 | 1012.1 |
| 20260506150501 | 68 | 225 | 4.3 | 7.0 | 0.00 | 3.75 | 3.75 | 71 | 1012.2 |
| 20260506150402 | 68 | 270 | 4.3 | 7.0 | 0.00 | 3.75 | 3.75 | 71 | 1012.2 |
| 20260506150304 | 68 | 270 | 4.3 | 7.0 | 0.00 | 3.75 | 3.75 | 72 | 1012.0 |
| 20260506150201 | 67 | 292 | 7.0 | 7.8 | 0.00 | 3.75 | 3.75 | 71 | 1012.2 |
| 20260506150101 | 67 | 292 | 7.0 | 11.3 | 0.00 | 3.75 | 3.75 | 70 | 1012.0 |
| 20260506150001 | 67 | 225 | 7.0 | 9.6 | 0.00 | 3.75 | 3.75 | 71 | 1012.3 |
| 20260506145901 | 67 | 292 | 9.6 | 14.8 | 0.00 | 3.75 | 3.75 | 70 | 1012.2 |
| 20260506145801 | 67 | 292 | 9.6 | 13.9 | 0.00 | 3.75 | 3.75 | 70 | 1012.2 |
| 20260506145702 | 67 | 248 | 9.6 | 13.9 | 0.00 | 3.75 | 3.75 | 71 | 1012.3 |
| 20260506145602 | 67 | 292 | 7.8 | 9.6 | 0.00 | 3.75 | 3.75 | 71 | 1012.3 |
| 20260506145502 | 67 | 270 | 7.0 | 12.2 | 0.00 | 3.75 | 3.75 | 73 | 1012.3 |
| 20260506145401 | 67 | 292 | 4.3 | 7.0 | 0.00 | 3.75 | 3.75 | 74 | 1012.3 |
| 20260506145305 | 67 | 248 | 5.2 | 7.0 | 0.00 | 3.75 | 3.75 | 74 | 1012.3 |
| 20260506145202 | 67 | 292 | 4.3 | 7.0 | 0.00 | 3.75 | 3.75 | 74 | 1012.2 |
| 20260506145102 | 67 | 292 | 7.8 | 13.9 | 0.00 | 3.75 | 3.75 | 73 | 1012.1 |
| 20260506145002 | 67 | 292 | 7.0 | 11.3 | 0.00 | 3.75 | 3.75 | 73 | 1012.2 |
| 20260506144902 | 67 | 292 | 7.0 | 9.6 | 0.00 | 3.75 | 3.75 | 74 | 1012.2 |
| 20260506144802 | 67 | 292 | 7.0 | 9.6 | 0.00 | 3.75 | 3.75 | 74 | 1012.2 |
| 20260506144702 | 67 | 270 | 6.1 | 9.6 | 0.00 | 3.75 | 3.75 | 75 | 1012.3 |
| 20260506144602 | 67 | 248 | 3.5 | 6.1 | 0.00 | 3.75 | 3.75 | 76 | 1012.2 |
| 20260506144502 | 67 | 292 | 4.3 | 7.0 | 0.00 | 3.75 | 3.75 | 76 | 1012.3 |
| 20260506144402 | 67 | 248 | 7.0 | 9.6 | 0.00 | 3.75 | 3.75 | 76 | 1012.1 |
| 20260506144301 | 67 | 270 | 5.2 | 9.6 | 0.00 | 3.75 | 3.75 | 76 | 1012.2 |
| 20260506144201 | 67 | 292 | 8.7 | 15.6 | 0.00 | 3.75 | 3.75 | 77 | 1011.9 |
| 20260506144101 | 67 | 315 | 8.7 | 13.0 | 0.00 | 3.75 | 3.75 | 77 | 1012.2 |
| 20260506144001 | 67 | 270 | 9.6 | 14.8 | 0.00 | 3.75 | 3.75 | 78 | 1012.1 |
| 20260506143901 | 67 | 270 | 5.2 | 13.0 | 0.00 | 3.75 | 3.75 | 79 | 1012.1 |
| 20260506143801 | 67 | 270 | 7.0 | 11.3 | 0.00 | 3.75 | 3.75 | 80 | 1012.0 |
| 20260506143702 | 67 | 292 | 3.5 | 9.6 | 0.00 | 3.75 | 3.75 | 81 | 1012.2 |
| 20260506143602 | 67 | 135 | 6.1 | 12.2 | 0.00 | 3.75 | 3.75 | 81 | 1012.0 |
| 20260506143503 | 67 | 292 | 7.0 | 13.9 | 0.00 | 3.75 | 3.75 | 81 | 1012.0 |
| 20260506143402 | 67 | 248 | 6.1 | 9.6 | 0.00 | 3.75 | 3.75 | 83 | 1012.1 |
| 20260506143302 | 67 | 270 | 3.5 | 5.2 | 0.00 | 3.75 | 3.75 | 84 | 1012.0 |
| 20260506143202 | 67 | 292 | 3.5 | 7.8 | 0.00 | 3.75 | 3.75 | 83 | 1012.1 |
| 20260506143102 | 66 | 292 | 3.5 | 9.6 | 0.00 | 3.75 | 3.75 | 83 | 1011.9 |
| 20260506143002 | 66 | 292 | 7.8 | 12.2 | 0.00 | 3.75 | 3.75 | 83 | 1012.1 |
| 20260506142902 | 67 | 292 | 7.0 | 11.3 | 0.00 | 3.75 | 3.75 | 83 | 1011.8 |
| 20260506142802 | 67 | 270 | 6.1 | 9.6 | 0.00 | 3.75 | 3.75 | 83 | 1012.1 |
| 20260506142701 | 67 | 270 | 7.0 | 9.6 | 0.00 | 3.75 | 3.75 | 83 | 1012.0 |
| 20260506142601 | 67 | 225 | 7.0 | 9.6 | 0.00 | 3.75 | 3.75 | 83 | 1011.8 |
| 20260506142501 | 67 | 270 | 5.2 | 9.6 | 0.00 | 3.75 | 3.75 | 83 | 1011.9 |
| 20260506142402 | 67 | 270 | 7.8 | 14.8 | 0.00 | 3.75 | 3.75 | 83 | 1012.0 |
| 20260506142305 | 67 | 292 | 6.1 | 9.6 | 0.00 | 3.75 | 3.75 | 84 | 1011.9 |
| 20260506142202 | 66 | 292 | 7.0 | 11.3 | 0.00 | 3.75 | 3.75 | 84 | 1011.8 |
| 20260506142102 | 66 | 270 | 8.7 | 14.8 | 0.00 | 3.75 | 3.75 | 84 | 1011.9 |
| 20260506142001 | 66 | 292 | 7.8 | 13.0 | 0.00 | 3.75 | 3.75 | 85 | 1011.6 |
| 20260506141902 | 67 | 292 | 6.1 | 11.3 | 0.00 | 3.75 | 3.75 | 85 | 1012.2 |
| 20260506141801 | 66 | 292 | 9.6 | 13.9 | 0.00 | 3.75 | 3.75 | 85 | 1012.0 |
| 20260506141701 | 66 | 292 | 6.1 | 9.6 | 0.00 | 3.75 | 3.75 | 86 | 1011.8 |
| 20260506141601 | 66 | 270 | 5.2 | 7.8 | 0.00 | 3.75 | 3.75 | 86 | 1011.8 |
| 20260506141501 | 66 | 292 | 7.0 | 13.0 | 0.00 | 3.75 | 3.75 | 87 | 1012.0 |
| 20260506141402 | 66 | 270 | 4.3 | 7.8 | 0.00 | 3.75 | 3.75 | 88 | 1011.9 |
| 20260506141301 | 66 | 292 | 3.5 | 7.0 | 0.00 | 3.75 | 3.75 | 88 | 1012.0 |
| 20260506141200 | 66 | 315 | 3.5 | 7.8 | 0.00 | 3.75 | 3.75 | 88 | 1012.0 |
| 20260506141101 | 66 | 292 | 7.8 | 13.9 | 0.00 | 3.75 | 3.75 | 88 | 1011.8 |
| 20260506141001 | 66 | 292 | 1.7 | 5.2 | 0.00 | 3.75 | 3.75 | 89 | 1011.8 |
| 20260506140901 | 66 | 270 | 3.5 | 7.0 | 0.00 | 3.75 | 3.75 | 89 | 1011.8 |
| 20260506140802 | 66 | 292 | 4.3 | 7.8 | 0.00 | 3.75 | 3.75 | 89 | 1011.9 |
| 20260506140701 | 66 | 292 | 3.5 | 6.1 | 0.00 | 3.75 | 3.75 | 89 | 1011.7 |
| 20260506140602 | 66 | 270 | 7.0 | 9.6 | 0.00 | 3.75 | 3.75 | 89 | 1012.0 |
| 20260506140502 | 66 | 292 | 8.7 | 12.2 | 0.00 | 3.75 | 3.75 | 89 | 1011.9 |
| 20260506140402 | 66 | 248 | 6.1 | 7.8 | 0.00 | 3.75 | 3.75 | 89 | 1011.8 |
| 20260506140302 | 66 | 225 | 9.6 | 12.2 | 0.00 | 3.75 | 3.75 | 88 | 1011.8 |
| 20260506140202 | 66 | 248 | 9.6 | 15.6 | 0.00 | 3.75 | 3.75 | 88 | 1012.0 |
| 20260506140002 | 66 | 270 | 9.6 | 13.0 | 0.00 | 3.75 | 3.75 | 88 | 1012.0 |
| 20260506135902 | 66 | 270 | 10.4 | 14.8 | 0.00 | 3.75 | 3.75 | 87 | 1011.9 |
| 20260506135801 | 66 | 292 | 8.7 | 12.2 | 0.00 | 3.75 | 3.75 | 88 | 1011.8 |
| 20260506135701 | 66 | 292 | 8.7 | 11.3 | 0.00 | 3.75 | 3.75 | 88 | 1012.1 |
| 20260506135601 | 66 | 292 | 10.4 | 13.9 | 0.00 | 3.75 | 3.75 | 88 | 1011.9 |
| 20260506135501 | 66 | 292 | 7.8 | 13.9 | 0.00 | 3.75 | 3.75 | 89 | 1012.1 |
| 20260506135401 | 66 | 270 | 7.0 | 11.3 | 0.00 | 3.75 | 3.75 | 89 | 1011.9 |
| 20260506135301 | 66 | 292 | 5.2 | 6.1 | 0.00 | 3.75 | 3.75 | 89 | 1011.9 |
| 20260506135201 | 66 | 248 | 6.1 | 9.6 | 0.00 | 3.75 | 3.75 | 89 | 1012.0 |
| 20260506135102 | 66 | 248 | 3.5 | 6.1 | 0.00 | 3.75 | 3.75 | 89 | 1012.0 |
| 20260506135002 | 65 | 248 | 6.1 | 7.0 | 0.00 | 3.75 | 3.75 | 89 | 1012.0 |
| 20260506134902 | 65 | 292 | 6.1 | 7.8 | 0.01 | 3.75 | 3.75 | 89 | 1012.0 |
| 20260506134801 | 65 | 270 | 5.2 | 7.8 | 0.02 | 3.75 | 3.75 | 89 | 1012.1 |
| 20260506134702 | 65 | 270 | 6.1 | 9.6 | 0.03 | 3.75 | 3.75 | 89 | 1012.0 |
| 20260506134602 | 65 | 248 | 7.0 | 9.6 | 0.03 | 3.75 | 3.75 | 89 | 1012.2 |
| 20260506134502 | 65 | 292 | 7.0 | 9.6 | 0.03 | 3.75 | 3.75 | 89 | 1012.1 |
| 20260506134402 | 65 | 270 | 8.7 | 11.3 | 0.03 | 3.75 | 3.75 | 89 | 1012.3 |
| 20260506134302 | 65 | 248 | 7.0 | 9.6 | 0.04 | 3.75 | 3.75 | 90 | 1011.8 |
| 20260506134202 | 65 | 248 | 4.3 | 7.0 | 0.05 | 3.75 | 3.75 | 90 | 1012.0 |
| 20260506134101 | 64 | 225 | 4.3 | 7.0 | 0.07 | 3.75 | 3.75 | 89 | 1012.0 |
| 20260506134002 | 64 | 225 | 5.2 | 9.6 | 0.08 | 3.75 | 3.75 | 89 | 1012.0 |
| 20260506133902 | 64 | 248 | 6.1 | 9.6 | 0.10 | 3.75 | 3.75 | 89 | 1012.1 |
| 20260506133801 | 64 | 248 | 6.1 | 7.0 | 0.11 | 3.75 | 3.75 | 89 | 1012.2 |
| 20260506133701 | 64 | 270 | 4.3 | 7.8 | 0.17 | 3.75 | 3.75 | 89 | 1012.1 |
| 20260506133601 | 64 | 270 | 7.0 | 9.6 | 0.21 | 3.75 | 3.75 | 89 | 1012.2 |
| 20260506133501 | 63 | 248 | 7.8 | 11.3 | 0.25 | 3.75 | 3.75 | 89 | 1012.0 |
| 20260506133401 | 64 | 248 | 7.0 | 9.6 | 0.33 | 3.75 | 3.75 | 91 | 1012.3 |
| 20260506133301 | 64 | 270 | 7.8 | 12.2 | 0.40 | 3.75 | 3.75 | 92 | 1012.3 |
| 20260506133201 | 64 | 270 | 7.8 | 11.3 | 0.40 | 3.75 | 3.75 | 93 | 1012.2 |
| 20260506133101 | 64 | 270 | 8.7 | 13.0 | 0.41 | 3.75 | 3.75 | 93 | 1012.1 |
| 20260506133001 | 64 | 270 | 7.0 | 9.6 | 0.41 | 3.75 | 3.75 | 94 | 1012.0 |
| 20260506132901 | 64 | 270 | 8.7 | 11.3 | 0.42 | 3.75 | 3.75 | 94 | 1012.2 |
| 20260506132801 | 65 | 292 | 7.8 | 9.6 | 0.43 | 3.75 | 3.75 | 95 | 1012.2 |
| 20260506132701 | 65 | 292 | 7.8 | 9.6 | 0.43 | 3.75 | 3.75 | 95 | 1012.4 |
| 20260506132601 | 65 | 248 | 5.2 | 7.0 | 0.47 | 3.75 | 3.75 | 96 | 1012.1 |
| 20260506132501 | 65 | 248 | 5.2 | 7.8 | 0.47 | 3.75 | 3.75 | 96 | 1012.1 |
| 20260506132301 | 65 | 292 | 5.2 | 7.8 | 0.48 | 3.75 | 3.75 | 96 | 1012.3 |
| 20260506132201 | 64 | 270 | 7.0 | 9.6 | 0.48 | 3.75 | 3.75 | 96 | 1012.0 |
| 20260506132101 | 64 | 270 | 7.0 | 9.6 | 0.54 | 3.75 | 3.75 | 96 | 1012.2 |
| 20260506132001 | 64 | 292 | 7.0 | 11.3 | 0.55 | 3.75 | 3.75 | 96 | 1012.1 |
| 20260506131901 | 64 | 292 | 5.2 | 9.6 | 0.56 | 3.75 | 3.75 | 97 | 1012.2 |
| 20260506131802 | 65 | 292 | 5.2 | 7.8 | 0.60 | 3.75 | 3.75 | 97 | 1012.0 |
| 20260506131702 | 65 | 315 | 5.2 | 9.6 | 0.68 | 3.75 | 3.75 | 97 | 1012.0 |
| 20260506131601 | 64 | 292 | 7.8 | 12.2 | 0.74 | 3.75 | 3.75 | 97 | 1012.2 |
| 20260506131501 | 65 | 292 | 6.1 | 9.6 | 0.79 | 3.75 | 3.75 | 97 | 1012.2 |
| 20260506131401 | 65 | 68 | 5.2 | 7.8 | 0.82 | 3.75 | 3.75 | 97 | 1012.3 |
| 20260506131301 | 65 | 248 | 3.5 | 5.2 | 0.86 | 3.75 | 3.75 | 97 | 1012.2 |
| 20260506131202 | 64 | 292 | 5.2 | 7.8 | 0.87 | 3.75 | 3.75 | 97 | 1012.1 |
| 20260506131102 | 64 | 292 | 3.5 | 9.6 | 0.87 | 3.75 | 3.75 | 97 | 1012.4 |
| 20260506131002 | 64 | 292 | 4.3 | 9.6 | 0.88 | 3.75 | 3.75 | 97 | 1012.3 |
| 20260506130902 | 64 | 292 | 6.1 | 9.6 | 0.89 | 3.75 | 3.75 | 97 | 1012.2 |
| 20260506130801 | 64 | 270 | 5.2 | 9.6 | 0.90 | 3.75 | 3.75 | 97 | 1012.3 |
| 20260506130701 | 64 | 248 | 5.2 | 9.6 | 0.90 | 3.75 | 3.75 | 97 | 1012.3 |
| 20260506130601 | 64 | 270 | 6.1 | 9.6 | 0.90 | 3.75 | 3.75 | 97 | 1012.3 |
| 20260506130502 | 64 | 292 | 8.7 | 12.2 | 0.96 | 3.75 | 3.75 | 97 | 1012.2 |
| 20260506130401 | 64 | 315 | 8.7 | 14.8 | 0.96 | 3.75 | 3.75 | 97 | 1012.2 |
| 20260506130301 | 64 | 270 | 7.0 | 13.9 | 0.96 | 3.75 | 3.75 | 97 | 1012.4 |
| 20260506130201 | 64 | 270 | 4.3 | 7.8 | 0.96 | 3.75 | 3.75 | 97 | 1012.0 |
| 20260506130002 | 64 | 292 | 5.2 | 7.8 | 0.96 | 3.75 | 3.75 | 97 | 1012.1 |
| 20260506125901 | 64 | 248 | 3.5 | 6.1 | 0.96 | 3.75 | 3.75 | 97 | 1012.2 |
| 20260506125802 | 64 | 270 | 6.1 | 9.6 | 0.98 | 3.75 | 3.75 | 97 | 1012.3 |
| 20260506125702 | 64 | 292 | 7.0 | 9.6 | 0.99 | 3.75 | 3.75 | 97 | 1012.1 |
| 20260506125602 | 64 | 270 | 2.6 | 9.6 | 0.99 | 3.75 | 3.75 | 97 | 1012.2 |
| 20260506125502 | 63 | 90 | 3.5 | 6.1 | 0.99 | 3.75 | 3.75 | 97 | 1012.2 |
| 20260506125402 | 63 | 315 | 1.7 | 5.2 | 0.99 | 3.75 | 3.75 | 97 | 1012.2 |
| 20260506125305 | 63 | 292 | 4.3 | 7.0 | 0.99 | 3.75 | 3.75 | 97 | 1012.2 |
| 20260506125202 | 63 | 292 | 3.5 | 3.5 | 0.99 | 3.75 | 3.75 | 97 | 1012.4 |
| 20260506125102 | 63 | 292 | 3.5 | 5.2 | 0.99 | 3.75 | 3.75 | 96 | 1012.2 |
| 20260506125002 | 63 | 292 | 3.5 | 6.1 | 0.98 | 3.74 | 3.74 | 96 | 1012.2 |
| 20260506124902 | 63 | 248 | 3.5 | 5.2 | 0.96 | 3.73 | 3.73 | 96 | 1012.2 |
| 20260506124802 | 63 | 270 | 3.5 | 3.5 | 0.95 | 3.72 | 3.72 | 96 | 1012.2 |
| 20260506124701 | 63 | 270 | 3.5 | 5.2 | 0.95 | 3.72 | 3.72 | 96 | 1012.2 |
| 20260506124601 | 62 | 248 | 4.3 | 6.1 | 0.95 | 3.72 | 3.72 | 96 | 1012.2 |
| 20260506124501 | 62 | 270 | 3.5 | 3.5 | 0.95 | 3.72 | 3.72 | 96 | 1012.2 |
| 20260506124401 | 62 | 248 | 3.5 | 5.2 | 0.94 | 3.70 | 3.70 | 96 | 1012.1 |
| 20260506124301 | 62 | 248 | 4.3 | 7.8 | 0.93 | 3.69 | 3.69 | 96 | 1012.1 |
| 20260506124201 | 62 | 270 | 4.3 | 9.6 | 0.92 | 3.68 | 3.68 | 96 | 1012.3 |
| 20260506124102 | 61 | 292 | 3.5 | 9.6 | 0.90 | 3.67 | 3.67 | 96 | 1012.3 |
| 20260506124001 | 61 | 315 | 4.3 | 7.0 | 0.88 | 3.64 | 3.64 | 95 | 1012.4 |
| 20260506123901 | 61 | 292 | 3.5 | 6.1 | 0.87 | 3.63 | 3.63 | 95 | 1012.5 |
| 20260506123802 | 60 | 292 | 3.5 | 5.2 | 0.81 | 3.57 | 3.57 | 95 | 1012.4 |
| 20260506123701 | 60 | 270 | 3.5 | 6.1 | 0.77 | 3.54 | 3.54 | 95 | 1012.3 |
| 20260506123601 | 60 | 68 | 3.5 | 7.8 | 0.73 | 3.49 | 3.49 | 95 | 1012.5 |
| 20260506123501 | 60 | 292 | 5.2 | 13.9 | 0.66 | 3.42 | 3.42 | 95 | 1012.5 |
| 20260506123401 | 59 | 292 | 3.5 | 6.1 | 0.59 | 3.35 | 3.35 | 94 | 1012.4 |
| 20260506123301 | 59 | 112 | 0.9 | 1.7 | 0.59 | 3.35 | 3.35 | 94 | 1012.2 |
| 20260506123201 | 59 | 90 | 1.7 | 3.5 | 0.57 | 3.34 | 3.34 | 94 | 1012.2 |
| 20260506123102 | 59 | 315 | 0.9 | 3.5 | 0.57 | 3.34 | 3.34 | 94 | 1012.3 |
| 20260506123001 | 58 | 270 | 0.9 | 1.7 | 0.56 | 3.33 | 3.33 | 93 | 1012.1 |
| 20260506122901 | 58 | 45 | 1.7 | 3.5 | 0.55 | 3.31 | 3.31 | 93 | 1012.0 |
| 20260506122802 | 58 | 90 | 0.9 | 1.7 | 0.55 | 3.31 | 3.31 | 93 | 1012.3 |
| 20260506122702 | 58 | 270 | 1.7 | 5.2 | 0.51 | 3.28 | 3.28 | 93 | 1012.3 |
| 20260506122602 | 58 | 292 | 1.7 | 3.5 | 0.51 | 3.28 | 3.28 | 93 | 1012.1 |
| 20260506122502 | 58 | 292 | 2.6 | 5.2 | 0.51 | 3.28 | 3.28 | 92 | 1012.3 |
| 20260506122402 | 58 | 270 | 1.7 | 5.2 | 0.50 | 3.27 | 3.27 | 92 | 1012.1 |
| 20260506122305 | 58 | 22 | 1.7 | 6.1 | 0.50 | 3.27 | 3.27 | 92 | 1012.2 |
| 20260506122201 | 58 | 248 | 4.3 | 9.6 | 0.44 | 3.21 | 3.21 | 91 | 1012.1 |
| 20260506122101 | 58 | 270 | 5.2 | 9.6 | 0.43 | 3.20 | 3.20 | 91 | 1012.3 |
| 20260506122002 | 59 | 292 | 2.6 | 7.8 | 0.42 | 3.18 | 3.18 | 91 | 1012.1 |
| 20260506121901 | 60 | 225 | 3.5 | 6.1 | 0.38 | 3.15 | 3.15 | 91 | 1012.3 |
| 20260506121801 | 60 | 68 | 2.6 | 3.5 | 0.30 | 3.07 | 3.07 | 91 | 1012.2 |
| 20260506121701 | 60 | 248 | 3.5 | 9.6 | 0.24 | 3.01 | 3.01 | 91 | 1012.4 |
| 20260506121601 | 60 | 68 | 1.7 | 5.2 | 0.20 | 2.96 | 2.96 | 91 | 1012.6 |
| 20260506121501 | 60 | 292 | 2.6 | 6.1 | 0.16 | 2.92 | 2.92 | 90 | 1012.5 |
| 20260506121401 | 60 | 292 | 4.3 | 9.6 | 0.12 | 2.89 | 2.89 | 90 | 1012.5 |
| 20260506121301 | 61 | 292 | 2.6 | 6.1 | 0.11 | 2.88 | 2.88 | 90 | 1012.4 |
| 20260506121201 | 61 | 270 | 3.5 | 5.2 | 0.11 | 2.88 | 2.88 | 89 | 1012.4 |
| 20260506121101 | 61 | 292 | 3.5 | 6.1 | 0.10 | 2.87 | 2.87 | 89 | 1012.3 |
| 20260506121001 | 62 | 248 | 3.5 | 5.2 | 0.09 | 2.85 | 2.85 | 89 | 1012.4 |
| 20260506120901 | 62 | 270 | 5.2 | 7.8 | 0.08 | 2.84 | 2.84 | 89 | 1012.4 |
| 20260506120801 | 63 | 270 | 4.3 | 9.6 | 0.08 | 2.84 | 2.84 | 89 | 1012.2 |
| 20260506120701 | 64 | 68 | 1.7 | 3.5 | 0.08 | 2.84 | 2.84 | 90 | 1011.9 |
| 20260506120602 | 67 | 292 | 7.8 | 11.3 | 0.02 | 2.78 | 2.78 | 84 | 1012.3 |
| 20260506120502 | 67 | 292 | 7.8 | 11.3 | 0.02 | 2.78 | 2.78 | 84 | 1012.4 |
| 20260506120401 | 67 | 292 | 7.8 | 11.3 | 0.02 | 2.78 | 2.78 | 84 | 1012.2 |
| 20260506120301 | 67 | 292 | 7.8 | 11.3 | 0.02 | 2.78 | 2.78 | 84 | 1012.1 |
| 20260506120201 | 67 | 292 | 7.8 | 11.3 | 0.02 | 2.78 | 2.78 | 84 | 1012.4 |
| 20260506120002 | 67 | 292 | 7.8 | 11.3 | 0.02 | 2.78 | 2.78 | 84 | 1012.1 |
| 20260506115902 | 67 | 270 | 7.0 | 9.6 | 0.01 | 2.77 | 2.77 | 84 | 1012.1 |
| 20260506115801 | 67 | 270 | 7.8 | 9.6 | 0.00 | 2.76 | 2.76 | 82 | 1012.0 |
| 20260506115701 | 67 | 270 | 7.8 | 9.6 | 0.00 | 2.76 | 2.76 | 82 | 1012.1 |
| 20260506115602 | 67 | 270 | 7.0 | 9.6 | 0.00 | 2.76 | 2.76 | 82 | 1012.1 |
| 20260506115501 | 67 | 292 | 7.0 | 7.8 | 0.00 | 2.76 | 2.76 | 82 | 1012.0 |
| 20260506115401 | 67 | 270 | 9.6 | 13.9 | 0.00 | 2.76 | 2.76 | 82 | 1012.0 |
| 20260506115306 | 67 | 225 | 7.0 | 9.6 | 0.00 | 2.76 | 2.76 | 82 | 1012.0 |
| 20260506115201 | 67 | 202 | 8.7 | 11.3 | 0.00 | 2.76 | 2.76 | 83 | 1012.1 |
| 20260506115101 | 67 | 202 | 8.7 | 11.3 | 0.00 | 2.76 | 2.76 | 83 | 1012.0 |
| 20260506115002 | 67 | 225 | 7.0 | 9.6 | 0.00 | 2.76 | 2.76 | 84 | 1012.1 |
| 20260506114901 | 67 | 248 | 7.0 | 12.2 | 0.00 | 2.76 | 2.76 | 84 | 1011.9 |
| 20260506114802 | 67 | 270 | 7.0 | 9.6 | 0.00 | 2.76 | 2.76 | 85 | 1012.0 |
| 20260506114702 | 67 | 248 | 6.1 | 9.6 | 0.00 | 2.76 | 2.76 | 85 | 1012.2 |
| 20260506114602 | 67 | 248 | 4.3 | 6.1 | 0.00 | 2.76 | 2.76 | 85 | 1012.2 |
| 20260506114502 | 67 | 248 | 6.1 | 9.6 | 0.00 | 2.76 | 2.76 | 84 | 1012.0 |
| 20260506114402 | 67 | 225 | 7.0 | 7.8 | 0.00 | 2.76 | 2.76 | 84 | 1012.2 |
| 20260506114302 | 67 | 248 | 7.8 | 11.3 | 0.00 | 2.76 | 2.76 | 83 | 1012.2 |
| 20260506114202 | 67 | 248 | 9.6 | 13.9 | 0.00 | 2.76 | 2.76 | 82 | 1012.1 |
| 20260506114102 | 67 | 225 | 11.3 | 14.8 | 0.00 | 2.76 | 2.76 | 81 | 1011.9 |
| 20260506114002 | 68 | 248 | 7.8 | 12.2 | 0.00 | 2.76 | 2.76 | 81 | 1012.1 |
| 20260506113902 | 68 | 202 | 7.0 | 9.6 | 0.00 | 2.76 | 2.76 | 81 | 1012.2 |
| 20260506113802 | 68 | 292 | 7.0 | 9.6 | 0.00 | 2.76 | 2.76 | 80 | 1012.2 |
| 20260506113702 | 68 | 248 | 7.0 | 9.6 | 0.00 | 2.76 | 2.76 | 80 | 1012.1 |
| 20260506113602 | 68 | 270 | 8.7 | 11.3 | 0.00 | 2.76 | 2.76 | 79 | 1012.0 |
| 20260506113502 | 68 | 248 | 9.6 | 13.0 | 0.00 | 2.76 | 2.76 | 79 | 1012.0 |
| 20260506113402 | 68 | 248 | 7.0 | 11.3 | 0.00 | 2.76 | 2.76 | 79 | 1011.9 |
| 20260506113302 | 69 | 270 | 7.0 | 9.6 | 0.00 | 2.76 | 2.76 | 80 | 1012.1 |
| 20260506113202 | 69 | 248 | 7.0 | 9.6 | 0.00 | 2.76 | 2.76 | 80 | 1012.0 |
| 20260506113102 | 69 | 248 | 8.7 | 13.0 | 0.00 | 2.76 | 2.76 | 79 | 1012.1 |
| 20260506113001 | 69 | 248 | 8.7 | 13.0 | 0.00 | 2.76 | 2.76 | 79 | 1012.1 |
| 20260506112901 | 69 | 248 | 7.8 | 12.2 | 0.00 | 2.76 | 2.76 | 80 | 1011.9 |
| 20260506112801 | 69 | 225 | 7.0 | 7.8 | 0.00 | 2.76 | 2.76 | 81 | 1012.1 |
| 20260506112701 | 69 | 270 | 7.0 | 11.3 | 0.00 | 2.76 | 2.76 | 80 | 1012.0 |
| 20260506112601 | 69 | 270 | 8.7 | 11.3 | 0.00 | 2.76 | 2.76 | 80 | 1012.0 |
| 20260506112501 | 68 | 270 | 9.6 | 13.0 | 0.00 | 2.76 | 2.76 | 80 | 1012.1 |
| 20260506112401 | 68 | 225 | 10.4 | 19.1 | 0.00 | 2.76 | 2.76 | 80 | 1012.1 |
| 20260506112301 | 68 | 248 | 10.4 | 14.8 | 0.00 | 2.76 | 2.76 | 80 | 1012.1 |
| 20260506112201 | 69 | 248 | 11.3 | 15.6 | 0.00 | 2.76 | 2.76 | 79 | 1012.1 |
| 20260506112101 | 69 | 225 | 8.7 | 12.2 | 0.00 | 2.76 | 2.76 | 79 | 1012.0 |
| 20260506112001 | 69 | 248 | 11.3 | 15.6 | 0.00 | 2.76 | 2.76 | 79 | 1012.3 |
| 20260506111901 | 69 | 248 | 12.2 | 15.6 | 0.00 | 2.76 | 2.76 | 79 | 1012.0 |
| 20260506111802 | 69 | 270 | 9.6 | 13.9 | 0.00 | 2.76 | 2.76 | 79 | 1012.0 |
| 20260506111701 | 70 | 270 | 6.1 | 9.6 | 0.00 | 2.76 | 2.76 | 81 | 1012.1 |
| 20260506111601 | 69 | 292 | 7.8 | 9.6 | 0.00 | 2.76 | 2.76 | 80 | 1012.0 |
| 20260506111501 | 69 | 270 | 9.6 | 13.9 | 0.00 | 2.76 | 2.76 | 80 | 1011.9 |
| 20260506111401 | 69 | 292 | 8.7 | 12.2 | 0.00 | 2.76 | 2.76 | 80 | 1012.1 |
| 20260506111302 | 69 | 248 | 11.3 | 17.4 | 0.00 | 2.76 | 2.76 | 79 | 1011.9 |
| 20260506111202 | 69 | 248 | 10.4 | 13.9 | 0.00 | 2.76 | 2.76 | 80 | 1012.2 |
| 20260506111101 | 69 | 270 | 9.6 | 13.0 | 0.00 | 2.76 | 2.76 | 80 | 1012.0 |
| 20260506111001 | 69 | 292 | 11.3 | 14.8 | 0.00 | 2.76 | 2.76 | 80 | 1012.0 |
| 20260506110901 | 69 | 225 | 11.3 | 13.9 | 0.00 | 2.76 | 2.76 | 79 | 1012.0 |
| 20260506110801 | 69 | 248 | 13.0 | 15.6 | 0.00 | 2.76 | 2.76 | 80 | 1012.1 |
| 20260506110701 | 69 | 270 | 11.3 | 20.0 | 0.00 | 2.76 | 2.76 | 79 | 1012.0 |
| 20260506110601 | 68 | 292 | 9.6 | 15.6 | 0.00 | 2.76 | 2.76 | 80 | 1012.0 |
| 20260506110501 | 68 | 270 | 9.6 | 13.9 | 0.00 | 2.76 | 2.76 | 80 | 1012.0 |
| 20260506110401 | 68 | 270 | 9.6 | 14.8 | 0.00 | 2.76 | 2.76 | 81 | 1011.9 |
| 20260506110301 | 68 | 248 | 8.7 | 13.0 | 0.00 | 2.76 | 2.76 | 82 | 1011.7 |
| 20260506110202 | 68 | 202 | 12.2 | 20.9 | 0.00 | 2.76 | 2.76 | 81 | 1012.0 |
| 20260506110002 | 68 | 225 | 7.0 | 12.2 | 0.00 | 2.76 | 2.76 | 82 | 1012.3 |
| 20260506105900 | 68 | 270 | 7.8 | 13.9 | 0.00 | 2.76 | 2.76 | 82 | 1011.9 |
| 20260506105802 | 68 | 248 | 8.7 | 13.0 | 0.00 | 2.76 | 2.76 | 82 | 1012.2 |
| 20260506105702 | 68 | 202 | 7.0 | 11.3 | 0.00 | 2.76 | 2.76 | 81 | 1012.0 |
| 20260506105602 | 68 | 248 | 7.0 | 11.3 | 0.00 | 2.76 | 2.76 | 81 | 1011.9 |
| 20260506105501 | 68 | 225 | 7.8 | 9.6 | 0.00 | 2.76 | 2.76 | 81 | 1012.0 |
| 20260506105402 | 68 | 248 | 13.0 | 18.2 | 0.00 | 2.76 | 2.76 | 79 | 1012.2 |
| 20260506105304 | 68 | 158 | 9.6 | 14.8 | 0.00 | 2.76 | 2.76 | 80 | 1012.3 |
| 20260506105202 | 68 | 248 | 10.4 | 15.6 | 0.00 | 2.76 | 2.76 | 80 | 1012.1 |
| 20260506105102 | 68 | 248 | 11.3 | 17.4 | 0.00 | 2.77 | 2.76 | 80 | 1012.1 |
| 20260506105002 | 68 | 248 | 12.2 | 15.6 | 0.00 | 2.77 | 2.76 | 80 | 1012.0 |
| 20260506104901 | 68 | 248 | 12.2 | 13.9 | 0.00 | 2.78 | 2.76 | 79 | 1011.9 |
| 20260506104801 | 68 | 248 | 13.0 | 17.4 | 0.00 | 2.78 | 2.76 | 78 | 1012.2 |
| 20260506104701 | 69 | 270 | 9.6 | 14.8 | 0.00 | 2.79 | 2.76 | 80 | 1012.1 |
| 20260506104601 | 69 | 180 | 9.6 | 13.0 | 0.00 | 2.79 | 2.76 | 81 | 1012.0 |
| 20260506104502 | 69 | 180 | 9.6 | 13.0 | 0.00 | 2.83 | 2.76 | 81 | 1012.2 |
| 20260506104401 | 69 | 270 | 9.6 | 13.0 | 0.00 | 2.88 | 2.76 | 81 | 1012.3 |
| 20260506104301 | 68 | 270 | 11.3 | 14.8 | 0.00 | 2.88 | 2.76 | 80 | 1012.1 |
| 20260506104201 | 68 | 270 | 13.9 | 19.1 | 0.00 | 2.90 | 2.76 | 80 | 1012.2 |
| 20260506104101 | 68 | 270 | 12.2 | 18.2 | 0.00 | 2.92 | 2.76 | 79 | 1012.2 |
| 20260506104001 | 69 | 248 | 7.0 | 13.0 | 0.00 | 2.94 | 2.76 | 81 | 1012.1 |
| 20260506103901 | 69 | 225 | 9.6 | 12.2 | 0.00 | 2.94 | 2.76 | 81 | 1012.3 |
| 20260506103801 | 69 | 270 | 9.6 | 13.9 | 0.00 | 2.94 | 2.76 | 81 | 1012.3 |
| 20260506103701 | 68 | 270 | 11.3 | 13.9 | 0.00 | 2.94 | 2.76 | 80 | 1012.2 |
| 20260506103601 | 68 | 248 | 10.4 | 14.8 | 0.00 | 2.94 | 2.76 | 79 | 1012.1 |
| 20260506103500 | 68 | 225 | 10.4 | 13.9 | 0.00 | 2.95 | 2.76 | 80 | 1012.3 |
| 20260506103400 | 68 | 270 | 13.0 | 19.1 | 0.00 | 2.95 | 2.76 | 79 | 1012.4 |
| 20260506103301 | 69 | 248 | 9.6 | 13.0 | 0.00 | 2.97 | 2.76 | 80 | 1012.0 |
| 20260506103201 | 69 | 202 | 5.2 | 9.6 | 0.00 | 2.97 | 2.76 | 81 | 1012.1 |
| 20260506103101 | 69 | 225 | 4.3 | 7.0 | 0.00 | 2.98 | 2.76 | 81 | 1012.1 |
| 20260506103001 | 69 | 202 | 8.7 | 13.0 | 0.00 | 2.99 | 2.76 | 80 | 1012.4 |
| 20260506102901 | 68 | 248 | 9.6 | 13.9 | 0.00 | 3.01 | 2.76 | 80 | 1011.9 |
| 20260506102802 | 69 | 225 | 7.0 | 9.6 | 0.00 | 3.01 | 2.76 | 80 | 1012.5 |
| 20260506102702 | 69 | 158 | 9.6 | 12.2 | 0.00 | 3.01 | 2.76 | 80 | 1012.3 |
| 20260506102602 | 69 | 270 | 7.8 | 12.2 | 0.00 | 3.02 | 2.76 | 79 | 1012.2 |
| 20260506102502 | 69 | 225 | 7.8 | 15.6 | 0.00 | 3.02 | 2.76 | 79 | 1012.3 |
| 20260506102402 | 69 | 135 | 7.0 | 9.6 | 0.00 | 3.02 | 2.76 | 80 | 1012.4 |
| 20260506102305 | 69 | 270 | 7.8 | 11.3 | 0.00 | 3.02 | 2.76 | 80 | 1012.3 |
| 20260506102201 | 69 | 180 | 7.0 | 9.6 | 0.00 | 3.02 | 2.76 | 79 | 1012.4 |
| 20260506102102 | 69 | 248 | 7.0 | 9.6 | 0.00 | 3.02 | 2.76 | 79 | 1012.2 |
| 20260506102002 | 69 | 158 | 7.0 | 9.6 | 0.00 | 3.03 | 2.76 | 80 | 1012.2 |
| 20260506101902 | 69 | 225 | 7.0 | 9.6 | 0.00 | 3.04 | 2.76 | 80 | 1012.2 |
| 20260506101801 | 69 | 315 | 7.8 | 12.2 | 0.00 | 3.04 | 2.76 | 80 | 1012.2 |
| 20260506101701 | 69 | 225 | 7.0 | 9.6 | 0.00 | 3.04 | 2.76 | 80 | 1012.3 |
| 20260506101602 | 69 | 202 | 6.1 | 9.6 | 0.00 | 3.04 | 2.76 | 80 | 1012.2 |
| 20260506101502 | 69 | 225 | 5.2 | 7.8 | 0.00 | 3.04 | 2.76 | 80 | 1012.2 |
| 20260506101402 | 69 | 202 | 7.0 | 12.2 | 0.00 | 3.05 | 2.76 | 80 | 1012.4 |
| 20260506101301 | 69 | 248 | 7.0 | 13.0 | 0.00 | 3.05 | 2.76 | 79 | 1012.3 |
| 20260506101201 | 69 | 225 | 6.1 | 9.6 | 0.00 | 3.08 | 2.76 | 81 | 1012.3 |
| 20260506101101 | 69 | 225 | 7.0 | 9.6 | 0.00 | 3.08 | 2.76 | 80 | 1012.4 |
| 20260506101001 | 69 | 225 | 7.8 | 9.6 | 0.00 | 3.08 | 2.76 | 81 | 1012.2 |
| 20260506100901 | 69 | 248 | 9.6 | 13.9 | 0.00 | 3.09 | 2.76 | 80 | 1012.2 |
| 20260506100802 | 68 | 270 | 7.0 | 12.2 | 0.00 | 3.12 | 2.76 | 80 | 1012.4 |
| 20260506100702 | 68 | 270 | 13.0 | 14.8 | 0.00 | 3.14 | 2.76 | 79 | 1012.2 |
| 20260506100602 | 68 | 225 | 6.1 | 11.3 | 0.00 | 3.14 | 2.76 | 80 | 1012.2 |
| 20260506100502 | 68 | 225 | 9.6 | 13.0 | 0.00 | 3.15 | 2.76 | 80 | 1012.0 |
| 20260506100402 | 68 | 225 | 8.7 | 12.2 | 0.00 | 3.15 | 2.76 | 80 | 1012.1 |
| 20260506100302 | 68 | 180 | 9.6 | 13.0 | 0.00 | 3.15 | 2.76 | 79 | 1012.1 |
| 20260506100202 | 68 | 270 | 9.6 | 14.8 | 0.00 | 3.15 | 2.76 | 80 | 1012.0 |
| 20260506100101 | 68 | 270 | 9.6 | 13.0 | 0.00 | 3.18 | 2.76 | 80 | 1012.1 |
| 20260506100001 | 68 | 180 | 9.6 | 13.9 | 0.00 | 3.18 | 2.76 | 79 | 1012.1 |
| 20260506095901 | 68 | 225 | 9.6 | 13.0 | 0.00 | 3.18 | 2.76 | 79 | 1012.1 |
| 20260506095801 | 68 | 248 | 9.6 | 13.9 | 0.00 | 3.20 | 2.76 | 79 | 1012.1 |
| 20260506095701 | 69 | 225 | 7.0 | 13.0 | 0.00 | 3.20 | 2.76 | 80 | 1011.9 |
| 20260506095601 | 68 | 225 | 7.0 | 13.9 | 0.00 | 3.21 | 2.76 | 79 | 1011.9 |
| 20260506095501 | 68 | 248 | 7.0 | 9.6 | 0.00 | 3.21 | 2.76 | 80 | 1012.1 |
| 20260506095400 | 68 | 248 | 9.6 | 13.9 | 0.00 | 3.21 | 2.76 | 78 | 1011.9 |
| 20260506095301 | 69 | 270 | 7.0 | 11.3 | 0.00 | 3.21 | 2.76 | 79 | 1012.0 |
| 20260506095201 | 69 | 158 | 6.1 | 9.6 | 0.00 | 3.21 | 2.76 | 79 | 1012.0 |
| 20260506095101 | 69 | 90 | 7.0 | 11.3 | 0.00 | 3.21 | 2.76 | 80 | 1012.0 |
| 20260506095002 | 68 | 202 | 7.0 | 9.6 | 0.00 | 3.21 | 2.76 | 80 | 1012.1 |
| 20260506094901 | 68 | 202 | 7.0 | 9.6 | 0.00 | 3.22 | 2.76 | 79 | 1012.0 |
| 20260506094802 | 68 | 202 | 7.0 | 11.3 | 0.00 | 3.22 | 2.76 | 78 | 1012.2 |
| 20260506094702 | 68 | 158 | 7.8 | 12.2 | 0.00 | 3.28 | 2.76 | 79 | 1012.1 |
| 20260506094602 | 68 | 135 | 9.6 | 15.6 | 0.00 | 3.28 | 2.76 | 80 | 1011.9 |
| 20260506094502 | 68 | 248 | 8.7 | 13.0 | 0.00 | 3.28 | 2.76 | 80 | 1012.1 |
| 20260506094402 | 68 | 158 | 6.1 | 9.6 | 0.00 | 3.28 | 2.76 | 81 | 1012.0 |
| 20260506094302 | 68 | 248 | 7.8 | 11.3 | 0.00 | 3.28 | 2.76 | 81 | 1012.1 |
| 20260506094202 | 68 | 225 | 10.4 | 14.8 | 0.00 | 3.28 | 2.76 | 81 | 1012.0 |
| 20260506094102 | 68 | 248 | 11.3 | 13.9 | 0.00 | 3.28 | 2.76 | 80 | 1012.1 |
| 20260506094002 | 67 | 248 | 10.4 | 13.9 | 0.00 | 3.28 | 2.76 | 80 | 1012.0 |
| 20260506093901 | 67 | 270 | 10.4 | 14.8 | 0.00 | 3.28 | 2.76 | 80 | 1012.0 |
| 20260506093801 | 67 | 202 | 7.0 | 11.3 | 0.00 | 3.29 | 2.76 | 81 | 1012.1 |
| 20260506093701 | 67 | 225 | 7.8 | 12.2 | 0.00 | 3.30 | 2.76 | 81 | 1012.0 |
| 20260506093601 | 67 | 270 | 6.1 | 11.3 | 0.00 | 3.30 | 2.76 | 81 | 1012.0 |
| 20260506093501 | 67 | 202 | 9.6 | 13.9 | 0.00 | 3.30 | 2.76 | 81 | 1012.1 |
| 20260506093401 | 67 | 248 | 7.0 | 9.6 | 0.00 | 3.30 | 2.76 | 81 | 1012.1 |
| 20260506093301 | 67 | 270 | 7.0 | 9.6 | 0.00 | 3.31 | 2.76 | 80 | 1012.1 |
| 20260506093201 | 67 | 248 | 7.8 | 13.0 | 0.00 | 3.31 | 2.76 | 80 | 1012.1 |
| 20260506093101 | 67 | 202 | 6.1 | 9.6 | 0.00 | 3.31 | 2.76 | 81 | 1012.1 |
| 20260506093001 | 67 | 248 | 7.0 | 12.2 | 0.00 | 3.31 | 2.76 | 81 | 1012.0 |
| 20260506092901 | 67 | 270 | 7.8 | 9.6 | 0.00 | 3.31 | 2.76 | 80 | 1012.0 |
| 20260506092802 | 67 | 225 | 7.0 | 7.8 | 0.00 | 3.31 | 2.76 | 81 | 1012.0 |
| 20260506092702 | 67 | 225 | 7.0 | 7.8 | 0.00 | 3.31 | 2.76 | 81 | 1012.0 |
| 20260506092602 | 67 | 112 | 6.1 | 9.6 | 0.00 | 3.31 | 2.76 | 81 | 1012.0 |
| 20260506092502 | 67 | 180 | 4.3 | 7.0 | 0.00 | 3.31 | 2.76 | 82 | 1012.0 |
| 20260506092402 | 67 | 202 | 7.0 | 11.3 | 0.00 | 3.31 | 2.76 | 81 | 1011.8 |
| 20260506092302 | 67 | 202 | 7.0 | 12.2 | 0.00 | 3.31 | 2.76 | 81 | 1012.2 |
| 20260506092202 | 67 | 248 | 9.6 | 18.2 | 0.00 | 3.31 | 2.76 | 81 | 1012.0 |
| 20260506092102 | 67 | 248 | 8.7 | 13.0 | 0.00 | 3.31 | 2.76 | 81 | 1012.0 |
| 20260506092001 | 66 | 180 | 11.3 | 14.8 | 0.00 | 3.31 | 2.76 | 81 | 1011.9 |
| 20260506091902 | 67 | 202 | 7.0 | 9.6 | 0.00 | 3.31 | 2.76 | 82 | 1011.8 |
| 20260506091801 | 67 | 225 | 5.2 | 7.8 | 0.00 | 3.33 | 2.76 | 83 | 1011.9 |
| 20260506091701 | 67 | 225 | 3.5 | 7.8 | 0.00 | 3.33 | 2.76 | 83 | 1012.2 |
| 20260506091601 | 66 | 225 | 7.0 | 9.6 | 0.00 | 3.33 | 2.76 | 82 | 1011.6 |
| 20260506091501 | 66 | 270 | 9.6 | 13.0 | 0.00 | 3.33 | 2.76 | 82 | 1011.7 |
| 20260506091401 | 66 | 225 | 5.2 | 9.6 | 0.00 | 3.33 | 2.76 | 83 | 1012.1 |
| 20260506091301 | 66 | 158 | 6.1 | 7.8 | 0.00 | 3.34 | 2.76 | 82 | 1012.0 |
| 20260506091201 | 66 | 158 | 6.1 | 7.8 | 0.00 | 3.34 | 2.76 | 82 | 1011.9 |
| 20260506091101 | 66 | 158 | 7.0 | 9.6 | 0.00 | 3.34 | 2.76 | 82 | 1012.0 |
| 20260506091001 | 66 | 270 | 10.4 | 19.1 | 0.00 | 3.34 | 2.76 | 82 | 1012.0 |
| 20260506090901 | 66 | 225 | 7.0 | 12.2 | 0.00 | 3.34 | 2.76 | 83 | 1012.1 |
| 20260506090802 | 66 | 270 | 6.1 | 9.6 | 0.00 | 3.34 | 2.76 | 83 | 1012.0 |
| 20260506090702 | 66 | 270 | 3.5 | 7.0 | 0.00 | 3.34 | 2.76 | 84 | 1012.1 |
| 20260506090602 | 65 | 270 | 5.2 | 9.6 | 0.00 | 3.34 | 2.76 | 84 | 1012.1 |
| 20260506090502 | 65 | 112 | 3.5 | 7.0 | 0.00 | 3.34 | 2.76 | 84 | 1011.9 |
| 20260506090402 | 65 | 202 | 3.5 | 6.1 | 0.00 | 3.34 | 2.76 | 84 | 1012.0 |
| 20260506090302 | 65 | 248 | 7.8 | 13.9 | 0.00 | 3.34 | 2.76 | 84 | 1012.0 |
| 20260506090202 | 65 | 248 | 3.5 | 7.0 | 0.00 | 3.34 | 2.76 | 84 | 1011.9 |
| 20260506090001 | 65 | 248 | 7.0 | 9.6 | 0.00 | 3.34 | 2.76 | 84 | 1012.0 |
| 20260506085901 | 65 | 270 | 5.2 | 9.6 | 0.00 | 3.34 | 2.76 | 84 | 1012.1 |
| 20260506085801 | 65 | 248 | 3.5 | 7.8 | 0.00 | 3.34 | 2.76 | 84 | 1012.1 |
| 20260506085701 | 65 | 158 | 3.5 | 6.1 | 0.00 | 3.34 | 2.76 | 84 | 1012.1 |
| 20260506085601 | 65 | 158 | 3.5 | 6.1 | 0.00 | 3.34 | 2.76 | 84 | 1011.9 |
| 20260506085501 | 65 | 225 | 4.3 | 7.8 | 0.00 | 3.34 | 2.76 | 84 | 1011.9 |
| 20260506085401 | 65 | 180 | 2.6 | 5.2 | 0.00 | 3.34 | 2.76 | 84 | 1011.9 |
| 20260506085301 | 65 | 180 | 3.5 | 7.0 | 0.00 | 3.34 | 2.76 | 84 | 1012.0 |
| 20260506085201 | 65 | 225 | 6.1 | 9.6 | 0.00 | 3.34 | 2.76 | 84 | 1011.7 |
| 20260506085101 | 65 | 248 | 4.3 | 7.0 | 0.00 | 3.34 | 2.76 | 84 | 1011.9 |
| 20260506085001 | 65 | 225 | 6.1 | 9.6 | 0.00 | 3.34 | 2.76 | 84 | 1012.0 |
| 20260506084901 | 65 | 135 | 5.2 | 7.0 | 0.00 | 3.34 | 2.76 | 84 | 1011.9 |
| 20260506084802 | 65 | 202 | 3.5 | 7.0 | 0.00 | 3.34 | 2.76 | 84 | 1012.0 |
| 20260506084702 | 65 | 135 | 5.2 | 7.8 | 0.00 | 3.34 | 2.76 | 84 | 1011.8 |
| 20260506084602 | 65 | 202 | 7.0 | 7.8 | 0.00 | 3.34 | 2.76 | 83 | 1012.0 |
| 20260506084502 | 65 | 225 | 4.3 | 7.0 | 0.00 | 3.34 | 2.76 | 84 | 1011.7 |
| 20260506084401 | 65 | 248 | 7.0 | 12.2 | 0.00 | 3.34 | 2.76 | 84 | 1012.0 |
| 20260506084302 | 65 | 202 | 7.0 | 9.6 | 0.00 | 3.34 | 2.76 | 84 | 1012.0 |
| 20260506084201 | 65 | 202 | 6.1 | 11.3 | 0.00 | 3.34 | 2.76 | 84 | 1012.1 |
| 20260506084101 | 65 | 112 | 5.2 | 9.6 | 0.00 | 3.35 | 2.76 | 84 | 1012.0 |
| 20260506084001 | 65 | 248 | 7.0 | 9.6 | 0.00 | 3.35 | 2.76 | 84 | 1011.6 |
| 20260506083901 | 65 | 112 | 4.3 | 7.8 | 0.00 | 3.36 | 2.76 | 84 | 1011.9 |
| 20260506083801 | 65 | 248 | 5.2 | 7.8 | 0.00 | 3.36 | 2.76 | 84 | 1011.9 |
| 20260506083701 | 65 | 225 | 6.1 | 7.8 | 0.00 | 3.37 | 2.76 | 84 | 1012.1 |
| 20260506083601 | 66 | 135 | 3.5 | 7.0 | 0.00 | 3.37 | 2.76 | 85 | 1012.0 |
| 20260506083501 | 65 | 90 | 5.2 | 7.0 | 0.00 | 3.37 | 2.76 | 84 | 1012.0 |
| 20260506083401 | 65 | 158 | 3.5 | 6.1 | 0.00 | 3.38 | 2.76 | 84 | 1011.9 |
| 20260506083301 | 65 | 248 | 6.1 | 9.6 | 0.00 | 3.38 | 2.76 | 84 | 1011.8 |
| 20260506083202 | 65 | 180 | 7.0 | 11.3 | 0.00 | 3.38 | 2.76 | 84 | 1011.9 |
| 20260506083101 | 65 | 202 | 7.0 | 9.6 | 0.00 | 3.38 | 2.76 | 84 | 1012.0 |
| 20260506083002 | 65 | 225 | 7.0 | 9.6 | 0.00 | 3.38 | 2.76 | 84 | 1012.0 |
| 20260506082902 | 65 | 202 | 5.2 | 7.8 | 0.00 | 3.38 | 2.76 | 84 | 1012.1 |
| 20260506082802 | 65 | 112 | 7.8 | 13.0 | 0.00 | 3.38 | 2.76 | 84 | 1012.0 |
| 20260506082702 | 65 | 248 | 7.8 | 13.0 | 0.00 | 3.38 | 2.76 | 84 | 1012.2 |
| 20260506082602 | 65 | 292 | 5.2 | 9.6 | 0.00 | 3.38 | 2.76 | 85 | 1011.9 |
| 20260506082502 | 65 | 180 | 2.6 | 5.2 | 0.00 | 3.38 | 2.76 | 85 | 1012.2 |
| 20260506082402 | 65 | 68 | 3.5 | 6.1 | 0.00 | 3.38 | 2.76 | 86 | 1012.2 |
| 20260506082304 | 65 | 180 | 5.2 | 7.8 | 0.00 | 3.38 | 2.76 | 86 | 1012.1 |
| 20260506082202 | 65 | 202 | 3.5 | 5.2 | 0.00 | 3.38 | 2.76 | 86 | 1012.2 |
| 20260506082102 | 64 | 225 | 6.1 | 9.6 | 0.00 | 3.38 | 2.76 | 86 | 1012.0 |
| 20260506082002 | 64 | 225 | 6.1 | 9.6 | 0.00 | 3.38 | 2.76 | 86 | 1012.0 |
| 20260506081902 | 64 | 158 | 6.1 | 9.6 | 0.00 | 3.38 | 2.76 | 86 | 1012.1 |
| 20260506081801 | 64 | 112 | 5.2 | 7.0 | 0.00 | 3.38 | 2.76 | 86 | 1011.9 |
| 20260506081701 | 64 | 135 | 4.3 | 6.1 | 0.00 | 3.38 | 2.76 | 86 | 1012.0 |
| 20260506081602 | 64 | 180 | 3.5 | 6.1 | 0.00 | 3.38 | 2.76 | 87 | 1011.8 |
| 20260506081502 | 64 | 180 | 3.5 | 5.2 | 0.00 | 3.38 | 2.76 | 87 | 1012.0 |
| 20260506081402 | 64 | 248 | 7.0 | 12.2 | 0.00 | 3.38 | 2.76 | 86 | 1011.9 |
| 20260506081302 | 63 | 270 | 7.8 | 11.3 | 0.00 | 3.38 | 2.76 | 86 | 1012.0 |
| 20260506081201 | 64 | 248 | 4.3 | 7.0 | 0.00 | 3.38 | 2.76 | 87 | 1012.1 |
| 20260506081102 | 64 | 225 | 3.5 | 7.8 | 0.00 | 3.38 | 2.76 | 88 | 1012.0 |
| 20260506081001 | 64 | 202 | 1.7 | 3.5 | 0.00 | 3.38 | 2.76 | 88 | 1011.9 |
| 20260506080902 | 63 | 202 | 3.5 | 5.2 | 0.00 | 3.38 | 2.76 | 88 | 1012.0 |
| 20260506080802 | 63 | 225 | 1.7 | 1.7 | 0.00 | 3.38 | 2.76 | 88 | 1012.0 |
| 20260506080701 | 63 | 158 | 2.6 | 3.5 | 0.00 | 3.38 | 2.76 | 88 | 1012.0 |
| 20260506080601 | 63 | 270 | 1.7 | 5.2 | 0.00 | 3.38 | 2.76 | 88 | 1012.1 |
| 20260506080501 | 63 | 248 | 1.7 | 3.5 | 0.00 | 3.38 | 2.76 | 88 | 1012.1 |
| 20260506080402 | 63 | 248 | 3.5 | 6.1 | 0.00 | 3.38 | 2.76 | 88 | 1012.0 |
| 20260506080301 | 63 | 135 | 4.3 | 6.1 | 0.00 | 3.38 | 2.76 | 88 | 1011.9 |
| 20260506080202 | 62 | 248 | 6.1 | 9.6 | 0.00 | 3.38 | 2.76 | 88 | 1011.9 |
| 20260506073502 | 61 | 202 | 3.5 | 5.2 | 0.00 | 3.40 | 2.76 | 94 | 1011.9 |
| 20260506073402 | 61 | 180 | 3.5 | 6.1 | 0.00 | 3.40 | 2.76 | 94 | 1011.8 |
| 20260506073302 | 61 | 248 | 3.5 | 7.0 | 0.00 | 3.40 | 2.76 | 95 | 1011.9 |
| 20260506073202 | 61 | 135 | 1.7 | 3.5 | 0.00 | 3.40 | 2.76 | 95 | 1012.0 |
| 20260506073101 | 61 | 112 | 3.5 | 5.2 | 0.00 | 3.40 | 2.76 | 95 | 1012.1 |
| 20260506073002 | 61 | 158 | 2.6 | 3.5 | 0.00 | 3.40 | 2.76 | 95 | 1011.9 |
| 20260506072902 | 61 | 248 | 3.5 | 7.0 | 0.00 | 3.40 | 2.76 | 96 | 1011.7 |
| 20260506072802 | 61 | 180 | 4.3 | 7.8 | 0.00 | 3.40 | 2.76 | 96 | 1011.8 |
| 20260506072702 | 61 | 112 | 3.5 | 5.2 | 0.00 | 3.40 | 2.76 | 96 | 1011.8 |
| 20260506072601 | 61 | 270 | 3.5 | 5.2 | 0.00 | 3.40 | 2.76 | 96 | 1011.9 |
| 20260506072502 | 61 | 135 | 2.6 | 5.2 | 0.00 | 3.40 | 2.76 | 96 | 1011.9 |
| 20260506072402 | 61 | 202 | 3.5 | 5.2 | 0.00 | 3.40 | 2.76 | 96 | 1012.0 |
| 20260506072305 | 61 | 180 | 1.7 | 3.5 | 0.00 | 3.40 | 2.76 | 96 | 1011.8 |
| 20260506072201 | 61 | 202 | 1.7 | 3.5 | 0.00 | 3.40 | 2.76 | 97 | 1011.9 |
| 20260506072102 | 61 | 180 | 1.7 | 3.5 | 0.00 | 3.40 | 2.76 | 97 | 1012.0 |
| 20260506072001 | 61 | 270 | 2.6 | 3.5 | 0.00 | 3.40 | 2.76 | 97 | 1011.8 |
| 20260506071901 | 61 | 202 | 2.6 | 3.5 | 0.00 | 3.40 | 2.76 | 97 | 1011.9 |
| 20260506071802 | 61 | 135 | 3.5 | 6.1 | 0.00 | 3.40 | 2.76 | 97 | 1011.9 |
| 20260506071702 | 61 | 180 | 3.5 | 5.2 | 0.00 | 3.40 | 2.76 | 97 | 1011.8 |
| 20260506071602 | 61 | 112 | 3.5 | 3.5 | 0.00 | 3.40 | 2.76 | 97 | 1011.9 |
| 20260506071502 | 61 | 135 | 2.6 | 3.5 | 0.00 | 3.40 | 2.76 | 97 | 1011.7 |
| 20260506071402 | 61 | 202 | 1.7 | 3.5 | 0.00 | 3.40 | 2.76 | 98 | 1011.8 |
| 20260506071302 | 61 | 225 | 3.5 | 5.2 | 0.00 | 3.40 | 2.76 | 98 | 1011.7 |
| 20260506071202 | 61 | 135 | 1.7 | 3.5 | 0.00 | 3.40 | 2.76 | 97 | 1011.6 |
| 20260506071102 | 61 | 112 | 1.7 | 3.5 | 0.00 | 3.40 | 2.76 | 98 | 1011.8 |
| 20260506071002 | 61 | 158 | 1.7 | 1.7 | 0.00 | 3.40 | 2.76 | 98 | 1011.7 |
| 20260506070902 | 61 | 112 | 0.9 | 3.5 | 0.00 | 3.40 | 2.76 | 98 | 1011.9 |
| 20260506070801 | 61 | 112 | 0.9 | 3.5 | 0.00 | 3.40 | 2.76 | 98 | 1011.8 |
| 20260506070702 | 61 | 112 | 0.0 | 0.0 | 0.00 | 3.40 | 2.76 | 98 | 1011.7 |
| 20260506070602 | 61 | 292 | 0.0 | 1.7 | 0.00 | 3.40 | 2.76 | 98 | 1011.7 |
| 20260506070501 | 61 | 135 | 0.9 | 1.7 | 0.00 | 3.40 | 2.76 | 98 | 1011.6 |
| 20260506070401 | 61 | 158 | 1.7 | 3.5 | 0.00 | 3.40 | 2.76 | 98 | 1011.7 |
| 20260506070301 | 61 | 158 | 0.9 | 1.7 | 0.00 | 3.40 | 2.76 | 98 | 1011.6 |
| 20260506070201 | 61 | 180 | 1.7 | 3.5 | 0.00 | 3.40 | 2.76 | 98 | 1011.8 |
| 20260506062502 | 60 | 112 | 2.6 | 5.2 | 0.02 | 3.40 | 2.76 | 99 | 1011.7 |
| 20260506062402 | 60 | 158 | 2.6 | 6.1 | 0.02 | 3.40 | 2.76 | 99 | 1011.8 |
| 20260506062305 | 60 | 135 | 2.6 | 7.0 | 0.02 | 3.40 | 2.76 | 99 | 1011.9 |
| 20260506062202 | 60 | 248 | 0.9 | 1.7 | 0.02 | 3.40 | 2.76 | 99 | 1011.9 |
| 20260506062102 | 60 | 225 | 1.7 | 3.5 | 0.03 | 3.40 | 2.76 | 99 | 1011.7 |
| 20260506062002 | 60 | 225 | 1.7 | 3.5 | 0.03 | 3.40 | 2.76 | 99 | 1011.8 |
| 20260506061902 | 60 | 112 | 1.7 | 3.5 | 0.03 | 3.40 | 2.76 | 99 | 1011.7 |
| 20260506061801 | 60 | 112 | 0.9 | 1.7 | 0.03 | 3.40 | 2.76 | 99 | 1011.9 |
| 20260506061701 | 60 | 112 | 0.9 | 1.7 | 0.03 | 3.40 | 2.76 | 99 | 1011.9 |
| 20260506061602 | 60 | 225 | 0.9 | 1.7 | 0.03 | 3.40 | 2.76 | 99 | 1011.8 |
| 20260506061501 | 60 | 270 | 0.0 | 1.7 | 0.03 | 3.40 | 2.76 | 99 | 1011.9 |
| 20260506061401 | 60 | 112 | 0.9 | 1.7 | 0.03 | 3.40 | 2.76 | 99 | 1011.9 |
| 20260506061302 | 60 | 90 | 1.7 | 3.5 | 0.03 | 3.40 | 2.76 | 99 | 1011.9 |
| 20260506061202 | 60 | 68 | 1.7 | 1.7 | 0.03 | 3.40 | 2.76 | 99 | 1011.8 |
| 20260506061101 | 60 | 45 | 1.7 | 3.5 | 0.03 | 3.40 | 2.76 | 99 | 1011.9 |
| 20260506061002 | 60 | 45 | 3.5 | 3.5 | 0.03 | 3.40 | 2.76 | 99 | 1011.6 |
| 20260506060901 | 60 | 45 | 3.5 | 5.2 | 0.03 | 3.40 | 2.76 | 99 | 1011.8 |
| 20260506060801 | 60 | 45 | 1.7 | 3.5 | 0.03 | 3.40 | 2.76 | 99 | 1011.8 |
| 20260506060701 | 60 | 68 | 1.7 | 3.5 | 0.03 | 3.40 | 2.76 | 99 | 1011.6 |
| 20260506060602 | 60 | 68 | 0.9 | 1.7 | 0.03 | 3.40 | 2.76 | 99 | 1011.6 |
| 20260506060501 | 60 | 68 | 0.9 | 1.7 | 0.03 | 3.40 | 2.76 | 99 | 1011.4 |
| 20260506060401 | 60 | 68 | 0.9 | 1.7 | 0.03 | 3.40 | 2.76 | 99 | 1011.5 |
| 20260506060301 | 60 | 68 | 0.9 | 1.7 | 0.03 | 3.40 | 2.76 | 99 | 1011.6 |
| 20260506060201 | 60 | 68 | 0.9 | 1.7 | 0.03 | 3.40 | 2.76 | 99 | 1011.6 |
| 20260506051402 | 59 | 135 | 1.7 | 1.7 | 0.00 | 3.37 | 2.72 | 99 | 1011.5 |
| 20260506051302 | 60 | 90 | 0.0 | 0.0 | 0.00 | 3.37 | 2.72 | 99 | 1011.6 |
| 20260506051201 | 60 | 90 | 0.0 | 0.0 | 0.00 | 3.37 | 2.72 | 99 | 1011.4 |
| 20260506051101 | 59 | 90 | 0.9 | 1.7 | 0.00 | 3.37 | 2.72 | 99 | 1011.5 |
| 20260506051001 | 60 | 68 | 0.9 | 1.7 | 0.00 | 3.37 | 2.72 | 99 | 1011.5 |
| 20260506050902 | 59 | 68 | 0.0 | 0.0 | 0.00 | 3.37 | 2.72 | 99 | 1011.4 |
| 20260506050802 | 59 | 90 | 0.0 | 0.0 | 0.00 | 3.37 | 2.72 | 99 | 1011.7 |
| 20260506050701 | 59 | 90 | 0.0 | 0.0 | 0.00 | 3.37 | 2.72 | 99 | 1011.4 |
| 20260506050601 | 60 | 90 | 0.9 | 1.7 | 0.00 | 3.37 | 2.72 | 99 | 1011.4 |
| 20260506050502 | 60 | 68 | 0.0 | 1.7 | 0.00 | 3.37 | 2.72 | 99 | 1011.4 |
| 20260506050401 | 59 | 90 | 0.9 | 1.7 | 0.00 | 3.37 | 2.72 | 99 | 1011.5 |
| 20260506050301 | 59 | 68 | 0.9 | 1.7 | 0.00 | 3.37 | 2.72 | 99 | 1011.7 |
| 20260506050201 | 59 | 68 | 0.0 | 0.0 | 0.00 | 3.37 | 2.72 | 99 | 1011.5 |
| 20260506045100 | 59 | 68 | 0.0 | 0.0 | 0.00 | 3.37 | 2.72 | 99 | 1011.6 |
| 20260506045001 | 59 | 68 | 0.0 | 0.0 | 0.00 | 3.37 | 2.72 | 99 | 1011.5 |
| 20260506044901 | 59 | 68 | 0.0 | 0.0 | 0.00 | 3.38 | 2.72 | 99 | 1011.7 |
| 20260506044801 | 59 | 90 | 0.0 | 0.0 | 0.00 | 3.38 | 2.72 | 99 | 1011.4 |
| 20260506044702 | 59 | 90 | 0.0 | 0.0 | 0.00 | 3.38 | 2.72 | 99 | 1011.5 |
| 20260506044602 | 59 | 90 | 0.0 | 0.0 | 0.00 | 3.40 | 2.72 | 99 | 1011.6 |
| 20260506044501 | 59 | 112 | 0.0 | 0.0 | 0.00 | 3.41 | 2.72 | 99 | 1011.5 |
| 20260506044402 | 59 | 68 | 0.0 | 0.0 | 0.00 | 3.41 | 2.72 | 99 | 1011.3 |
| 20260506044301 | 59 | 90 | 0.0 | 0.0 | 0.00 | 3.41 | 2.72 | 99 | 1011.5 |
| 20260506044201 | 59 | 68 | 0.0 | 0.0 | 0.00 | 3.42 | 2.72 | 99 | 1011.6 |
| 20260506044101 | 59 | 68 | 0.0 | 0.0 | 0.00 | 3.42 | 2.72 | 99 | 1011.6 |
| 20260506044001 | 59 | 68 | 0.0 | 0.0 | 0.00 | 3.43 | 2.72 | 99 | 1011.5 |
| 20260506043902 | 59 | 202 | 0.0 | 0.0 | 0.00 | 3.43 | 2.72 | 99 | 1011.6 |
| 20260506043801 | 59 | 68 | 0.0 | 0.0 | 0.00 | 3.43 | 2.72 | 99 | 1011.6 |
| 20260506043701 | 59 | 292 | 0.0 | 1.7 | 0.00 | 3.44 | 2.72 | 99 | 1011.5 |
| 20260506043602 | 59 | 270 | 1.7 | 1.7 | 0.00 | 3.44 | 2.72 | 99 | 1011.6 |
| 20260506043501 | 59 | 158 | 0.0 | 1.7 | 0.00 | 3.46 | 2.72 | 99 | 1011.5 |
| 20260506043401 | 59 | 158 | 1.7 | 3.5 | 0.00 | 3.47 | 2.72 | 99 | 1011.6 |
| 20260506043301 | 59 | 90 | 0.9 | 1.7 | 0.00 | 3.47 | 2.72 | 99 | 1011.5 |
| 20260506043201 | 59 | 90 | 0.9 | 1.7 | 0.00 | 3.47 | 2.72 | 99 | 1011.5 |
| 20260506043101 | 59 | 112 | 0.9 | 1.7 | 0.00 | 3.47 | 2.72 | 99 | 1011.6 |
| 20260506043001 | 59 | 90 | 0.0 | 0.0 | 0.00 | 3.47 | 2.72 | 99 | 1011.8 |
| 20260506042901 | 59 | 68 | 0.0 | 0.0 | 0.00 | 3.47 | 2.72 | 99 | 1011.6 |
| 20260506042801 | 59 | 90 | 0.0 | 0.0 | 0.00 | 3.47 | 2.72 | 99 | 1011.5 |
| 20260506042702 | 59 | 90 | 0.0 | 0.0 | 0.00 | 3.47 | 2.72 | 99 | 1011.4 |
| 20260506042602 | 59 | 135 | 0.0 | 1.7 | 0.00 | 3.47 | 2.72 | 99 | 1011.6 |
| 20260506042502 | 59 | 90 | 0.0 | 1.7 | 0.00 | 3.47 | 2.72 | 99 | 1011.5 |
| 20260506042402 | 59 | 135 | 0.9 | 1.7 | 0.00 | 3.47 | 2.72 | 99 | 1011.6 |
| 20260506042305 | 59 | 135 | 0.9 | 1.7 | 0.00 | 3.47 | 2.72 | 99 | 1011.5 |
| 20260506042202 | 59 | 292 | 1.7 | 1.7 | 0.00 | 3.47 | 2.72 | 99 | 1011.8 |
| 20260506042102 | 59 | 270 | 1.7 | 1.7 | 0.00 | 3.47 | 2.72 | 99 | 1011.5 |
| 20260506042002 | 59 | 90 | 1.7 | 3.5 | 0.00 | 3.47 | 2.72 | 99 | 1011.7 |
| 20260506041902 | 59 | 90 | 1.7 | 3.5 | 0.00 | 3.47 | 2.72 | 99 | 1011.5 |
| 20260506041802 | 59 | 22 | 1.7 | 3.5 | 0.00 | 3.47 | 2.72 | 99 | 1011.7 |
| 20260506041702 | 59 | 68 | 1.7 | 3.5 | 0.00 | 3.47 | 2.72 | 99 | 1011.5 |
| 20260506041602 | 59 | 135 | 1.7 | 1.7 | 0.00 | 3.47 | 2.72 | 99 | 1011.5 |
| 20260506041501 | 59 | 135 | 1.7 | 1.7 | 0.00 | 3.47 | 2.72 | 99 | 1011.5 |
| 20260506041401 | 59 | 112 | 1.7 | 1.7 | 0.00 | 3.47 | 2.72 | 99 | 1011.5 |
| 20260506041301 | 59 | 225 | 1.7 | 3.5 | 0.00 | 3.48 | 2.72 | 99 | 1011.3 |
| 20260506041201 | 59 | 248 | 0.0 | 1.7 | 0.00 | 3.48 | 2.72 | 99 | 1011.7 |
| 20260506041101 | 59 | 45 | 0.9 | 1.7 | 0.00 | 3.48 | 2.72 | 99 | 1011.4 |
| 20260506041001 | 59 | 45 | 1.7 | 3.5 | 0.00 | 3.48 | 2.72 | 99 | 1011.4 |
| 20260506040901 | 59 | 45 | 1.7 | 3.5 | 0.00 | 3.48 | 2.72 | 99 | 1011.5 |
| 20260506040801 | 59 | 45 | 1.7 | 3.5 | 0.00 | 3.48 | 2.72 | 99 | 1011.5 |
| 20260506040701 | 59 | 68 | 2.6 | 5.2 | 0.00 | 3.48 | 2.72 | 99 | 1011.3 |
| 20260506040601 | 59 | 68 | 3.5 | 5.2 | 0.00 | 3.48 | 2.72 | 99 | 1011.5 |
| 20260506040501 | 59 | 90 | 0.9 | 3.5 | 0.00 | 3.49 | 2.72 | 99 | 1011.6 |
| 20260506040402 | 59 | 225 | 0.9 | 1.7 | 0.00 | 3.49 | 2.72 | 99 | 1011.7 |
| 20260506040301 | 59 | 248 | 1.7 | 3.5 | 0.00 | 3.49 | 2.72 | 99 | 1011.4 |
| 20260506040201 | 59 | 68 | 1.7 | 3.5 | 0.00 | 3.50 | 2.72 | 99 | 1011.6 |
| 20260506040101 | 59 | 112 | 1.7 | 3.5 | 0.00 | 3.50 | 2.72 | 99 | 1011.6 |
| 20260506040001 | 59 | 90 | 2.6 | 3.5 | 0.00 | 3.50 | 2.72 | 99 | 1011.6 |
| 20260506035902 | 59 | 45 | 3.5 | 6.1 | 0.00 | 3.50 | 2.72 | 99 | 1011.4 |
| 20260506035801 | 59 | 90 | 1.7 | 3.5 | 0.00 | 3.50 | 2.72 | 99 | 1011.6 |
| 20260506035701 | 59 | 68 | 1.7 | 3.5 | 0.00 | 3.50 | 2.72 | 99 | 1011.5 |
| 20260506035601 | 59 | 68 | 2.6 | 5.2 | 0.00 | 3.50 | 2.72 | 99 | 1011.6 |
| 20260506035501 | 59 | 45 | 3.5 | 6.1 | 0.00 | 3.50 | 2.72 | 99 | 1011.6 |
| 20260506035402 | 59 | 22 | 3.5 | 6.1 | 0.00 | 3.50 | 2.72 | 99 | 1011.5 |
| 20260506035302 | 59 | 68 | 3.5 | 6.1 | 0.00 | 3.51 | 2.72 | 99 | 1011.3 |
| 20260506035201 | 59 | 45 | 1.7 | 3.5 | 0.01 | 3.51 | 2.72 | 99 | 1011.6 |
| 20260506035101 | 59 | 68 | 3.5 | 5.2 | 0.03 | 3.51 | 2.72 | 99 | 1011.4 |
| 20260506035002 | 58 | 68 | 3.5 | 6.1 | 0.04 | 3.53 | 2.72 | 99 | 1011.4 |
| 20260506034902 | 58 | 22 | 4.3 | 6.1 | 0.05 | 3.53 | 2.72 | 99 | 1011.4 |
| 20260506034802 | 58 | 45 | 2.6 | 5.2 | 0.07 | 3.54 | 2.72 | 99 | 1011.6 |
| 20260506034702 | 58 | 0 | 3.5 | 5.2 | 0.09 | 3.54 | 2.72 | 99 | 1011.5 |
| 20260506034602 | 59 | 68 | 3.5 | 5.2 | 0.10 | 3.54 | 2.72 | 99 | 1011.5 |
| 20260506034502 | 59 | 90 | 3.5 | 6.1 | 0.11 | 3.54 | 2.72 | 99 | 1011.7 |
| 20260506034402 | 59 | 45 | 3.5 | 6.1 | 0.11 | 3.55 | 2.72 | 99 | 1011.2 |
| 20260506034301 | 59 | 45 | 5.2 | 7.8 | 0.12 | 3.55 | 2.72 | 99 | 1011.6 |
| 20260506034201 | 59 | 68 | 5.2 | 7.8 | 0.12 | 3.55 | 2.72 | 99 | 1011.6 |
| 20260506034101 | 59 | 22 | 3.5 | 6.1 | 0.14 | 3.57 | 2.72 | 99 | 1011.7 |
| 20260506034002 | 59 | 22 | 3.5 | 6.1 | 0.15 | 3.60 | 2.72 | 99 | 1011.4 |
| 20260506033901 | 59 | 68 | 3.5 | 6.1 | 0.17 | 3.60 | 2.72 | 99 | 1011.8 |
| 20260506033801 | 59 | 90 | 3.5 | 3.5 | 0.17 | 3.61 | 2.72 | 99 | 1011.8 |
| 20260506033701 | 59 | 45 | 3.5 | 6.1 | 0.20 | 3.63 | 2.72 | 99 | 1011.8 |
| 20260506033601 | 59 | 22 | 5.2 | 9.6 | 0.21 | 3.64 | 2.72 | 99 | 1011.8 |
| 20260506033500 | 59 | 45 | 4.3 | 9.6 | 0.21 | 3.67 | 2.72 | 99 | 1011.5 |
| 20260506033401 | 59 | 112 | 3.5 | 7.0 | 0.23 | 3.67 | 2.72 | 99 | 1011.6 |
| 20260506033301 | 59 | 22 | 4.3 | 7.8 | 0.27 | 3.70 | 2.72 | 99 | 1011.8 |
| 20260506033201 | 59 | 45 | 4.3 | 7.0 | 0.28 | 3.70 | 2.72 | 99 | 1011.8 |
| 20260506033101 | 59 | 68 | 4.3 | 6.1 | 0.29 | 3.72 | 2.72 | 99 | 1011.6 |
| 20260506033001 | 59 | 45 | 6.1 | 9.6 | 0.30 | 3.73 | 2.72 | 99 | 1011.4 |
| 20260506032901 | 59 | 45 | 4.3 | 9.6 | 0.30 | 3.75 | 2.72 | 99 | 1011.3 |
| 20260506032801 | 59 | 45 | 3.5 | 3.5 | 0.31 | 3.76 | 2.72 | 99 | 1011.8 |
| 20260506032701 | 59 | 45 | 3.5 | 6.1 | 0.33 | 3.76 | 2.72 | 99 | 1011.7 |
| 20260506032601 | 59 | 45 | 3.5 | 5.2 | 0.35 | 3.76 | 2.72 | 99 | 1011.5 |
| 20260506032502 | 59 | 22 | 2.6 | 3.5 | 0.37 | 3.77 | 2.72 | 99 | 1011.5 |
| 20260506032402 | 59 | 68 | 3.5 | 5.2 | 0.41 | 3.77 | 2.72 | 99 | 1011.2 |
| 20260506032305 | 59 | 68 | 2.6 | 3.5 | 0.42 | 3.77 | 2.72 | 99 | 1011.6 |
| 20260506032201 | 59 | 68 | 2.6 | 3.5 | 0.44 | 3.77 | 2.72 | 99 | 1011.5 |
| 20260506032102 | 59 | 68 | 1.7 | 3.5 | 0.50 | 3.79 | 2.72 | 99 | 1011.4 |
| 20260506032002 | 59 | 68 | 1.7 | 1.7 | 0.50 | 3.79 | 2.72 | 99 | 1011.5 |
| 20260506031901 | 59 | 45 | 0.9 | 1.7 | 0.51 | 3.79 | 2.72 | 99 | 1011.4 |
| 20260506031801 | 59 | 45 | 1.7 | 3.5 | 0.53 | 3.79 | 2.72 | 99 | 1011.5 |
| 20260506031701 | 59 | 45 | 1.7 | 1.7 | 0.55 | 3.79 | 2.72 | 99 | 1011.5 |
| 20260506031601 | 59 | 45 | 2.6 | 3.5 | 0.55 | 3.79 | 2.72 | 99 | 1011.7 |
| 20260506031501 | 59 | 45 | 2.6 | 3.5 | 0.56 | 3.79 | 2.72 | 99 | 1011.6 |
| 20260506031401 | 59 | 45 | 3.5 | 3.5 | 0.57 | 3.79 | 2.72 | 99 | 1011.8 |
| 20260506031301 | 59 | 45 | 2.6 | 3.5 | 0.63 | 3.79 | 2.72 | 99 | 1011.8 |
| 20260506031201 | 59 | 45 | 2.6 | 5.2 | 0.64 | 3.79 | 2.72 | 99 | 1011.6 |
| 20260506031101 | 58 | 45 | 1.7 | 3.5 | 0.66 | 3.79 | 2.72 | 99 | 1011.8 |
| 20260506031001 | 59 | 68 | 1.7 | 1.7 | 0.68 | 3.79 | 2.72 | 99 | 1011.8 |
| 20260506030900 | 58 | 68 | 0.9 | 1.7 | 0.70 | 3.79 | 2.72 | 99 | 1011.8 |
| 20260506030801 | 59 | 45 | 0.0 | 0.0 | 0.72 | 3.79 | 2.72 | 99 | 1012.0 |
| 20260506030702 | 58 | 68 | 0.0 | 0.0 | 0.73 | 3.79 | 2.72 | 99 | 1012.0 |
| 20260506030602 | 58 | 90 | 1.7 | 1.7 | 0.73 | 3.79 | 2.72 | 99 | 1012.0 |
| 20260506030502 | 59 | 45 | 1.7 | 3.5 | 0.75 | 3.79 | 2.72 | 99 | 1012.0 |
| 20260506030402 | 59 | 45 | 3.5 | 3.5 | 0.76 | 3.79 | 2.72 | 99 | 1012.0 |
| 20260506030302 | 59 | 45 | 2.6 | 3.5 | 0.76 | 3.79 | 2.72 | 99 | 1011.9 |
| 20260506030202 | 59 | 68 | 1.7 | 1.7 | 0.76 | 3.79 | 2.72 | 99 | 1012.1 |
| 20260506030002 | 59 | 45 | 2.6 | 3.5 | 0.79 | 3.79 | 2.72 | 99 | 1012.3 |
| 20260506025902 | 59 | 45 | 1.7 | 3.5 | 0.79 | 3.79 | 2.72 | 99 | 1012.0 |
| 20260506025801 | 59 | 45 | 2.6 | 5.2 | 0.80 | 3.79 | 2.72 | 99 | 1012.0 |
| 20260506025701 | 59 | 45 | 2.6 | 3.5 | 0.83 | 3.80 | 2.72 | 99 | 1012.1 |
| 20260506025602 | 59 | 45 | 1.7 | 3.5 | 0.88 | 3.80 | 2.72 | 99 | 1012.0 |
| 20260506025502 | 59 | 68 | 3.5 | 5.2 | 0.90 | 3.80 | 2.72 | 99 | 1012.2 |
| 20260506025401 | 59 | 45 | 3.5 | 5.2 | 0.92 | 3.80 | 2.72 | 99 | 1012.1 |
| 20260506025301 | 58 | 45 | 2.6 | 3.5 | 0.93 | 3.79 | 2.71 | 99 | 1011.9 |
| 20260506025201 | 58 | 68 | 2.6 | 3.5 | 0.92 | 3.76 | 2.69 | 99 | 1012.2 |
| 20260506025102 | 58 | 45 | 0.9 | 1.7 | 0.90 | 3.75 | 2.68 | 99 | 1012.0 |
| 20260506025002 | 58 | 68 | 0.0 | 0.0 | 0.89 | 3.74 | 2.66 | 99 | 1012.2 |
| 20260506024901 | 58 | 90 | 0.0 | 0.0 | 0.90 | 3.73 | 2.65 | 99 | 1012.5 |
| 20260506024801 | 58 | 135 | 0.0 | 1.7 | 0.89 | 3.70 | 2.63 | 99 | 1012.4 |
| 20260506024701 | 58 | 112 | 1.7 | 1.7 | 0.88 | 3.69 | 2.62 | 99 | 1012.0 |
| 20260506024601 | 58 | 68 | 1.7 | 3.5 | 0.87 | 3.68 | 2.61 | 99 | 1012.3 |
| 20260506024501 | 58 | 68 | 0.0 | 0.0 | 0.87 | 3.68 | 2.61 | 99 | 1012.0 |
| 20260506024401 | 58 | 90 | 0.0 | 0.0 | 0.86 | 3.67 | 2.59 | 99 | 1012.1 |
| 20260506024301 | 58 | 90 | 0.0 | 0.0 | 0.86 | 3.67 | 2.59 | 99 | 1012.1 |
| 20260506024201 | 58 | 90 | 0.0 | 0.0 | 0.85 | 3.66 | 2.58 | 99 | 1012.3 |
| 20260506024101 | 58 | 90 | 0.0 | 0.0 | 0.83 | 3.64 | 2.57 | 99 | 1012.2 |
| 20260506024000 | 58 | 90 | 0.0 | 0.0 | 0.81 | 3.62 | 2.55 | 99 | 1012.4 |
| 20260506023901 | 58 | 90 | 0.0 | 0.0 | 0.81 | 3.62 | 2.55 | 99 | 1012.1 |
| 20260506023801 | 58 | 45 | 0.0 | 0.0 | 0.79 | 3.60 | 2.52 | 99 | 1012.2 |
| 20260506023701 | 58 | 68 | 0.0 | 0.0 | 0.77 | 3.59 | 2.51 | 99 | 1012.1 |
| 20260506023601 | 58 | 68 | 1.7 | 3.5 | 0.77 | 3.59 | 2.51 | 99 | 1012.0 |
| 20260506023502 | 58 | 45 | 0.9 | 1.7 | 0.75 | 3.56 | 2.49 | 99 | 1012.2 |
| 20260506023402 | 58 | 90 | 1.7 | 3.5 | 0.72 | 3.53 | 2.45 | 99 | 1012.4 |
| 20260506023302 | 58 | 45 | 1.7 | 3.5 | 0.70 | 3.51 | 2.44 | 99 | 1012.0 |
| 20260506023202 | 58 | 270 | 0.9 | 1.7 | 0.69 | 3.50 | 2.43 | 99 | 1012.3 |
| 20260506023102 | 58 | 22 | 1.7 | 3.5 | 0.68 | 3.49 | 2.42 | 99 | 1012.3 |
| 20260506023001 | 58 | 45 | 6.1 | 9.6 | 0.68 | 3.49 | 2.42 | 99 | 1012.0 |
| 20260506022901 | 58 | 68 | 4.3 | 9.6 | 0.67 | 3.48 | 2.40 | 99 | 1011.7 |
| 20260506022801 | 58 | 45 | 5.2 | 7.8 | 0.66 | 3.47 | 2.39 | 99 | 1011.8 |
| 20260506022701 | 58 | 68 | 3.5 | 5.2 | 0.63 | 3.44 | 2.37 | 99 | 1012.0 |
| 20260506022602 | 58 | 68 | 2.6 | 6.1 | 0.61 | 3.42 | 2.35 | 99 | 1012.3 |
| 20260506022502 | 58 | 90 | 1.7 | 3.5 | 0.57 | 3.38 | 2.31 | 99 | 1012.0 |
| 20260506022401 | 58 | 112 | 2.6 | 3.5 | 0.56 | 3.37 | 2.30 | 99 | 1012.2 |
| 20260506022301 | 58 | 90 | 3.5 | 5.2 | 0.54 | 3.35 | 2.27 | 99 | 1012.3 |
| 20260506022201 | 58 | 90 | 1.7 | 1.7 | 0.48 | 3.29 | 2.22 | 99 | 1012.1 |
| 20260506022102 | 58 | 68 | 0.9 | 3.5 | 0.48 | 3.29 | 2.22 | 99 | 1012.0 |
| 20260506022001 | 58 | 45 | 2.6 | 3.5 | 0.47 | 3.28 | 2.20 | 99 | 1011.9 |
| 20260506021901 | 58 | 68 | 2.6 | 3.5 | 0.46 | 3.27 | 2.19 | 99 | 1011.9 |
| 20260506021801 | 58 | 45 | 5.2 | 7.0 | 0.43 | 3.24 | 2.17 | 99 | 1011.5 |
| 20260506021702 | 58 | 45 | 3.5 | 6.1 | 0.43 | 3.24 | 2.17 | 99 | 1011.5 |
| 20260506021602 | 58 | 45 | 3.5 | 3.5 | 0.43 | 3.23 | 2.16 | 99 | 1011.7 |
| 20260506021502 | 58 | 45 | 2.6 | 3.5 | 0.42 | 3.22 | 2.14 | 99 | 1012.0 |
| 20260506021402 | 58 | 68 | 0.9 | 1.7 | 0.36 | 3.16 | 2.09 | 98 | 1012.2 |
| 20260506021302 | 58 | 68 | 0.9 | 1.7 | 0.36 | 3.15 | 2.07 | 98 | 1012.3 |
| 20260506021202 | 58 | 45 | 1.7 | 1.7 | 0.35 | 3.14 | 2.06 | 98 | 1012.2 |
| 20260506021102 | 58 | 45 | 3.5 | 5.2 | 0.33 | 3.11 | 2.04 | 98 | 1012.2 |
| 20260506021001 | 57 | 68 | 0.9 | 1.7 | 0.30 | 3.09 | 2.01 | 98 | 1012.3 |
| 20260506020902 | 57 | 68 | 1.7 | 1.7 | 0.30 | 3.08 | 2.00 | 98 | 1012.3 |
| 20260506020802 | 57 | 68 | 1.7 | 3.5 | 0.29 | 3.07 | 1.99 | 98 | 1012.2 |
| 20260506020702 | 58 | 45 | 1.7 | 3.5 | 0.29 | 3.07 | 1.99 | 98 | 1012.2 |
| 20260506020602 | 58 | 22 | 5.2 | 7.8 | 0.27 | 3.04 | 1.97 | 98 | 1012.1 |
| 20260506020501 | 58 | 22 | 3.5 | 7.0 | 0.25 | 3.03 | 1.96 | 98 | 1011.8 |
| 20260506020402 | 58 | 45 | 4.3 | 7.0 | 0.27 | 3.03 | 1.96 | 98 | 1012.0 |
| 20260506020302 | 58 | 68 | 3.5 | 3.5 | 0.27 | 3.03 | 1.96 | 98 | 1012.1 |
| 20260506020201 | 58 | 45 | 3.5 | 5.2 | 0.24 | 3.01 | 1.93 | 98 | 1012.0 |
| 20260506020002 | 58 | 68 | 3.5 | 7.0 | 0.24 | 3.01 | 1.93 | 98 | 1012.1 |
| 20260506015902 | 58 | 68 | 3.5 | 5.2 | 0.23 | 2.99 | 1.92 | 98 | 1012.0 |
| 20260506015802 | 58 | 45 | 2.6 | 3.5 | 0.20 | 2.97 | 1.88 | 98 | 1012.0 |
| 20260506015701 | 58 | 68 | 2.6 | 3.5 | 0.15 | 2.92 | 1.84 | 98 | 1011.9 |
| 20260506015601 | 58 | 68 | 2.6 | 5.2 | 0.12 | 2.90 | 1.81 | 98 | 1011.8 |
| 20260506015501 | 58 | 45 | 1.7 | 3.5 | 0.11 | 2.89 | 1.80 | 98 | 1011.9 |
| 20260506015401 | 58 | 68 | 1.7 | 3.5 | 0.09 | 2.87 | 1.78 | 98 | 1012.0 |
| 20260506015301 | 58 | 68 | 1.7 | 1.7 | 0.09 | 2.85 | 1.77 | 98 | 1012.2 |
| 20260506015201 | 58 | 22 | 1.7 | 5.2 | 0.09 | 2.85 | 1.77 | 98 | 1011.9 |
| 20260506015101 | 58 | 45 | 1.7 | 3.5 | 0.09 | 2.85 | 1.77 | 98 | 1012.0 |
| 20260506015002 | 58 | 68 | 2.6 | 3.5 | 0.07 | 2.83 | 1.74 | 98 | 1012.0 |
| 20260506014900 | 58 | 90 | 2.6 | 3.5 | 0.08 | 2.82 | 1.73 | 98 | 1012.1 |
| 20260506014801 | 58 | 68 | 1.7 | 3.5 | 0.10 | 2.82 | 1.73 | 98 | 1011.9 |
| 20260506014701 | 58 | 45 | 1.7 | 3.5 | 0.11 | 2.82 | 1.73 | 98 | 1011.9 |
| 20260506014602 | 58 | 45 | 1.7 | 3.5 | 0.11 | 2.82 | 1.73 | 98 | 1012.0 |
| 20260506014502 | 58 | 68 | 1.7 | 3.5 | 0.12 | 2.82 | 1.73 | 98 | 1012.1 |
| 20260506014402 | 58 | 45 | 1.7 | 3.5 | 0.14 | 2.82 | 1.73 | 98 | 1012.0 |
| 20260506014302 | 58 | 68 | 0.0 | 1.7 | 0.14 | 2.82 | 1.73 | 98 | 1012.2 |
| 20260506014202 | 58 | 90 | 1.7 | 1.7 | 0.14 | 2.82 | 1.73 | 98 | 1012.3 |
| 20260506014102 | 58 | 45 | 1.7 | 1.7 | 0.14 | 2.82 | 1.73 | 98 | 1012.2 |
| 20260506014002 | 58 | 68 | 1.7 | 1.7 | 0.14 | 2.82 | 1.73 | 98 | 1012.1 |
| 20260506013902 | 58 | 68 | 1.7 | 1.7 | 0.14 | 2.82 | 1.73 | 98 | 1012.4 |
| 20260506013802 | 58 | 112 | 0.9 | 1.7 | 0.15 | 2.82 | 1.73 | 98 | 1012.4 |
| 20260506013701 | 58 | 202 | 1.7 | 1.7 | 0.15 | 2.82 | 1.73 | 98 | 1012.3 |
| 20260506013602 | 58 | 202 | 1.7 | 1.7 | 0.15 | 2.83 | 1.73 | 98 | 1012.2 |
| 20260506013502 | 58 | 225 | 1.7 | 1.7 | 0.15 | 2.83 | 1.73 | 98 | 1012.4 |
| 20260506013402 | 58 | 22 | 2.6 | 5.2 | 0.15 | 2.83 | 1.73 | 98 | 1012.0 |
| 20260506013301 | 58 | 90 | 3.5 | 6.1 | 0.15 | 2.83 | 1.73 | 98 | 1012.1 |
| 20260506013202 | 59 | 45 | 4.3 | 7.0 | 0.15 | 2.83 | 1.73 | 98 | 1012.2 |
| 20260506013101 | 59 | 45 | 5.2 | 6.1 | 0.15 | 2.83 | 1.73 | 98 | 1012.0 |
| 20260506013001 | 58 | 90 | 2.6 | 3.5 | 0.15 | 2.83 | 1.73 | 98 | 1012.2 |
| 20260506012901 | 58 | 45 | 1.7 | 3.5 | 0.15 | 2.83 | 1.73 | 98 | 1012.0 |
| 20260506012802 | 58 | 45 | 1.7 | 3.5 | 0.15 | 2.83 | 1.73 | 98 | 1012.3 |
| 20260506012702 | 59 | 68 | 1.7 | 1.7 | 0.15 | 2.83 | 1.73 | 98 | 1012.2 |
| 20260506012601 | 59 | 22 | 2.6 | 3.5 | 0.15 | 2.84 | 1.73 | 98 | 1012.4 |
| 20260506012501 | 59 | 45 | 1.7 | 3.5 | 0.15 | 2.84 | 1.73 | 98 | 1012.2 |
| 20260506012401 | 59 | 90 | 1.7 | 3.5 | 0.15 | 2.84 | 1.73 | 98 | 1012.1 |
| 20260506012301 | 59 | 68 | 1.7 | 3.5 | 0.15 | 2.84 | 1.73 | 98 | 1012.2 |
| 20260506012200 | 59 | 45 | 0.9 | 3.5 | 0.15 | 2.84 | 1.73 | 98 | 1012.6 |
| 20260506012101 | 59 | 45 | 0.9 | 3.5 | 0.15 | 2.84 | 1.73 | 98 | 1012.1 |
| 20260506012001 | 59 | 45 | 0.9 | 1.7 | 0.15 | 2.84 | 1.73 | 98 | 1012.3 |
| 20260506011900 | 59 | 45 | 1.7 | 1.7 | 0.15 | 2.84 | 1.73 | 98 | 1012.2 |
| 20260506011801 | 59 | 45 | 1.7 | 1.7 | 0.15 | 2.84 | 1.73 | 98 | 1012.4 |
| 20260506011702 | 59 | 45 | 1.7 | 1.7 | 0.14 | 2.83 | 1.72 | 98 | 1012.4 |
| 20260506011602 | 59 | 68 | 1.7 | 3.5 | 0.14 | 2.83 | 1.72 | 98 | 1012.3 |
| 20260506011502 | 59 | 45 | 1.7 | 1.7 | 0.14 | 2.83 | 1.72 | 98 | 1012.4 |
| 20260506011402 | 59 | 45 | 1.7 | 3.5 | 0.12 | 2.82 | 1.71 | 98 | 1012.3 |
| 20260506011302 | 59 | 45 | 1.7 | 3.5 | 0.12 | 2.83 | 1.71 | 98 | 1012.3 |
| 20260506011202 | 59 | 22 | 1.7 | 3.5 | 0.12 | 2.83 | 1.71 | 98 | 1012.2 |
| 20260506011102 | 59 | 45 | 2.6 | 3.5 | 0.12 | 2.83 | 1.71 | 98 | 1012.1 |
| 20260506011002 | 58 | 45 | 3.5 | 6.1 | 0.11 | 2.82 | 1.70 | 98 | 1012.3 |
| 20260506010902 | 59 | 45 | 1.7 | 3.5 | 0.11 | 2.82 | 1.70 | 98 | 1012.2 |
| 20260506010802 | 59 | 45 | 2.6 | 3.5 | 0.11 | 2.82 | 1.70 | 98 | 1012.1 |
| 20260506010702 | 58 | 22 | 1.7 | 3.5 | 0.11 | 2.83 | 1.70 | 98 | 1012.0 |
| 20260506010601 | 59 | 68 | 1.7 | 3.5 | 0.11 | 2.83 | 1.70 | 98 | 1012.4 |